| time (UTC) | temp F | wind direction | speed MPH | gust MPH | rain 1hr in | rain 24hr in | rain mn in | humidity % | barometer mb |
| 20260906172000 | 79 | 58 | 1.0 | 4.0 | 0.00 | 0.07 | 0.01 | 62 | 1014.5 |
| 20260906171857 | 79 | 36 | 1.0 | 4.0 | 0.00 | 0.07 | 0.01 | 62 | 1014.5 |
| 20260906171528 | 79 | 255 | 0.0 | 3.0 | 0.00 | 0.07 | 0.01 | 67 | 1014.5 |
| 20260906171423 | 79 | 230 | 0.0 | 3.0 | 0.00 | 0.07 | 0.01 | 67 | 1014.5 |
| 20260906170843 | 79 | 266 | 0.0 | 3.0 | 0.00 | 0.07 | 0.01 | 66 | 1014.5 |
| 20260906170740 | 79 | 39 | 0.0 | 3.0 | 0.00 | 0.07 | 0.01 | 68 | 1014.6 |
| 20260906170416 | 79 | 337 | 1.0 | 7.0 | 0.00 | 0.07 | 0.01 | 69 | 1014.6 |
| 20260906170046 | 79 | 32 | 1.0 | 7.0 | 0.00 | 0.07 | 0.01 | 69 | 1014.6 |
| 20260906165942 | 79 | 32 | 1.0 | 7.0 | 0.00 | 0.07 | 0.01 | 68 | 1014.6 |
| 20260906165613 | 79 | 96 | 1.0 | 7.0 | 0.00 | 0.07 | 0.01 | 67 | 1014.6 |
| 20260906165512 | 79 | 63 | 1.0 | 7.0 | 0.00 | 0.07 | 0.01 | 68 | 1014.6 |
| 20260906165405 | 79 | 342 | 1.0 | 7.0 | 0.00 | 0.07 | 0.01 | 68 | 1014.6 |
| 20260906165258 | 79 | 17 | 1.0 | 7.0 | 0.00 | 0.07 | 0.01 | 67 | 1014.7 |
| 20260906165156 | 79 | 131 | 1.0 | 7.0 | 0.00 | 0.07 | 0.01 | 69 | 1014.7 |
| 20260906165049 | 79 | 0 | 1.0 | 7.0 | 0.00 | 0.07 | 0.01 | 67 | 1014.7 |
| 20260906164944 | 79 | 16 | 1.0 | 7.0 | 0.00 | 0.07 | 0.01 | 66 | 1014.7 |
| 20260906164841 | 79 | 74 | 1.0 | 7.0 | 0.00 | 0.07 | 0.01 | 62 | 1014.7 |
| 20260906164735 | 79 | 21 | 0.0 | 7.0 | 0.00 | 0.07 | 0.01 | 64 | 1014.7 |
| 20260906164629 | 78 | 277 | 0.0 | 5.0 | 0.00 | 0.07 | 0.01 | 61 | 1014.7 |
| 20260906164523 | 78 | 76 | 0.0 | 3.0 | 0.00 | 0.07 | 0.01 | 62 | 1014.7 |
| 20260906164155 | 79 | 67 | 0.0 | 4.0 | 0.00 | 0.07 | 0.01 | 69 | 1014.7 |
| 20260906164054 | 79 | 101 | 0.0 | 4.0 | 0.00 | 0.07 | 0.01 | 64 | 1014.8 |
| 20260906163950 | 79 | 305 | 0.0 | 4.0 | 0.00 | 0.07 | 0.01 | 66 | 1014.8 |
| 20260906163845 | 79 | 220 | 0.0 | 4.0 | 0.00 | 0.07 | 0.01 | 65 | 1014.8 |
| 20260906163739 | 79 | 329 | 0.0 | 4.0 | 0.00 | 0.07 | 0.01 | 67 | 1014.8 |
| 20260906163634 | 79 | 46 | 0.0 | 4.0 | 0.00 | 0.07 | 0.01 | 66 | 1014.8 |
| 20260906163532 | 79 | 9 | 0.0 | 4.0 | 0.00 | 0.07 | 0.01 | 66 | 1014.8 |
| 20260906163427 | 79 | 0 | 0.0 | 4.0 | 0.00 | 0.07 | 0.01 | 66 | 1014.7 |
| 20260906163322 | 79 | 121 | 0.0 | 4.0 | 0.00 | 0.07 | 0.01 | 65 | 1014.8 |
| 20260906163216 | 78 | 121 | 0.0 | 4.0 | 0.00 | 0.07 | 0.01 | 66 | 1014.8 |
| 20260906163110 | 78 | 230 | 0.0 | 4.0 | 0.00 | 0.07 | 0.01 | 66 | 1014.8 |
| 20260906163007 | 78 | 111 | 0.0 | 4.0 | 0.00 | 0.07 | 0.01 | 69 | 1014.8 |
| 20260906162424 | 78 | 229 | 1.0 | 4.0 | 0.00 | 0.07 | 0.01 | 68 | 1014.8 |
| 20260906162322 | 78 | 355 | 1.0 | 3.0 | 0.00 | 0.07 | 0.01 | 64 | 1014.8 |
| 20260906162216 | 78 | 88 | 0.0 | 3.0 | 0.00 | 0.07 | 0.01 | 69 | 1014.9 |
| 20260906162111 | 78 | 214 | 0.0 | 3.0 | 0.00 | 0.07 | 0.01 | 71 | 1014.9 |
| 20260906161749 | 77 | 112 | 0.0 | 3.0 | 0.00 | 0.07 | 0.01 | 66 | 1015.0 |
| 20260906161646 | 77 | 88 | 0.0 | 2.0 | 0.00 | 0.07 | 0.01 | 72 | 1014.9 |
| 20260906161542 | 77 | 5 | 0.0 | 2.0 | 0.00 | 0.07 | 0.01 | 68 | 1015.0 |
| 20260906161440 | 77 | 277 | 0.0 | 2.0 | 0.00 | 0.07 | 0.01 | 70 | 1014.9 |
| 20260906161335 | 78 | 281 | 0.0 | 2.0 | 0.00 | 0.07 | 0.01 | 73 | 1014.9 |
| 20260906161227 | 78 | 317 | 0.0 | 2.0 | 0.00 | 0.07 | 0.01 | 70 | 1014.9 |
| 20260906161124 | 78 | 76 | 0.0 | 2.0 | 0.00 | 0.07 | 0.01 | 70 | 1014.9 |
| 20260906161020 | 78 | 80 | 0.0 | 2.0 | 0.00 | 0.07 | 0.01 | 67 | 1014.9 |
| 20260906160914 | 78 | 80 | 0.0 | 2.0 | 0.00 | 0.07 | 0.01 | 72 | 1015.0 |
| 20260906160811 | 78 | 355 | 0.0 | 2.0 | 0.00 | 0.07 | 0.01 | 69 | 1014.9 |
| 20260906160708 | 78 | 67 | 0.0 | 2.0 | 0.00 | 0.07 | 0.01 | 69 | 1015.0 |
| 20260906160604 | 77 | 279 | 0.0 | 2.0 | 0.00 | 0.07 | 0.01 | 69 | 1014.9 |
| 20260906160501 | 78 | 95 | 0.0 | 2.0 | 0.00 | 0.07 | 0.01 | 67 | 1014.9 |
| 20260906160355 | 78 | 43 | 0.0 | 2.0 | 0.00 | 0.07 | 0.01 | 70 | 1014.9 |
| 20260906160253 | 77 | 63 | 0.0 | 2.0 | 0.00 | 0.07 | 0.01 | 73 | 1014.9 |
| 20260906160148 | 78 | 18 | 0.0 | 2.0 | 0.00 | 0.07 | 0.01 | 70 | 1014.9 |
| 20260906160041 | 78 | 18 | 0.0 | 2.0 | 0.00 | 0.07 | 0.01 | 68 | 1014.9 |
| 20260906155939 | 77 | 27 | 0.0 | 2.0 | 0.00 | 0.07 | 0.01 | 73 | 1014.8 |
| 20260906155835 | 77 | 43 | 0.0 | 2.0 | 0.00 | 0.07 | 0.01 | 72 | 1014.9 |
| 20260906155730 | 77 | 30 | 0.0 | 3.0 | 0.00 | 0.07 | 0.01 | 68 | 1014.9 |
| 20260906155626 | 77 | 80 | 0.0 | 3.0 | 0.00 | 0.07 | 0.01 | 67 | 1014.9 |
| 20260906155523 | 77 | 65 | 0.0 | 3.0 | 0.00 | 0.07 | 0.01 | 74 | 1014.9 |
| 20260906155419 | 77 | 27 | 0.0 | 3.0 | 0.00 | 0.07 | 0.01 | 73 | 1014.9 |
| 20260906155312 | 77 | 211 | 0.0 | 3.0 | 0.00 | 0.07 | 0.01 | 71 | 1014.9 |
| 20260906155208 | 77 | 153 | 0.0 | 3.0 | 0.00 | 0.07 | 0.01 | 68 | 1014.9 |
| 20260906155106 | 77 | 140 | 0.0 | 3.0 | 0.00 | 0.07 | 0.01 | 68 | 1014.9 |
| 20260906154959 | 77 | 42 | 0.0 | 3.0 | 0.00 | 0.07 | 0.01 | 69 | 1014.9 |
| 20260906154854 | 77 | 33 | 0.0 | 3.0 | 0.00 | 0.07 | 0.01 | 69 | 1014.9 |
| 20260906154750 | 77 | 248 | 0.0 | 3.0 | 0.00 | 0.07 | 0.01 | 69 | 1014.9 |
| 20260906154643 | 77 | 264 | 0.0 | 3.0 | 0.00 | 0.07 | 0.01 | 68 | 1014.9 |
| 20260906154538 | 77 | 172 | 0.0 | 3.0 | 0.00 | 0.07 | 0.01 | 70 | 1014.9 |
| 20260906154432 | 77 | 336 | 0.0 | 3.0 | 0.00 | 0.07 | 0.01 | 72 | 1014.9 |
| 20260906154329 | 77 | 17 | 0.0 | 3.0 | 0.00 | 0.07 | 0.01 | 72 | 1014.9 |
| 20260906154000 | 76 | 45 | 0.0 | 3.0 | 0.00 | 0.07 | 0.01 | 72 | 1014.9 |
| 20260906153634 | 76 | 11 | 0.0 | 5.0 | 0.00 | 0.07 | 0.01 | 72 | 1014.8 |
| 20260906153310 | 76 | 217 | 1.0 | 5.0 | 0.00 | 0.07 | 0.01 | 76 | 1014.8 |
| 20260906153207 | 76 | 95 | 1.0 | 5.0 | 0.00 | 0.07 | 0.01 | 74 | 1014.7 |
| 20260906153059 | 76 | 34 | 1.0 | 5.0 | 0.00 | 0.07 | 0.01 | 74 | 1014.7 |
| 20260906152731 | 75 | 348 | 1.0 | 5.0 | 0.00 | 0.07 | 0.01 | 74 | 1014.8 |
| 20260906152629 | 75 | 275 | 1.0 | 5.0 | 0.00 | 0.07 | 0.01 | 70 | 1014.8 |
| 20260906152301 | 76 | 306 | 0.0 | 5.0 | 0.00 | 0.07 | 0.01 | 72 | 1014.8 |
| 20260906152154 | 76 | 281 | 0.0 | 5.0 | 0.00 | 0.07 | 0.01 | 69 | 1014.8 |
| 20260906152048 | 77 | 132 | 0.0 | 5.0 | 0.00 | 0.07 | 0.01 | 70 | 1014.8 |
| 20260906151944 | 76 | 311 | 0.0 | 5.0 | 0.00 | 0.07 | 0.01 | 71 | 1014.8 |
| 20260906151841 | 76 | 22 | 0.0 | 5.0 | 0.00 | 0.07 | 0.01 | 72 | 1014.8 |
| 20260906151734 | 76 | 238 | 0.0 | 3.0 | 0.00 | 0.07 | 0.01 | 71 | 1014.8 |
| 20260906151628 | 76 | 342 | 0.0 | 3.0 | 0.00 | 0.07 | 0.01 | 71 | 1014.8 |
| 20260906151521 | 76 | 298 | 0.0 | 3.0 | 0.00 | 0.07 | 0.01 | 72 | 1014.8 |
| 20260906151413 | 75 | 59 | 0.0 | 2.0 | 0.00 | 0.07 | 0.01 | 72 | 1014.8 |
| 20260906151307 | 75 | 5 | 0.0 | 2.0 | 0.00 | 0.07 | 0.01 | 73 | 1014.8 |
| 20260906151203 | 75 | 5 | 0.0 | 3.0 | 0.00 | 0.07 | 0.01 | 72 | 1014.9 |
| 20260906151056 | 75 | 40 | 0.0 | 3.0 | 0.00 | 0.07 | 0.01 | 72 | 1014.9 |
| 20260906150950 | 75 | 40 | 0.0 | 3.0 | 0.00 | 0.07 | 0.01 | 72 | 1014.9 |
| 20260906150846 | 75 | 77 | 0.0 | 3.0 | 0.00 | 0.07 | 0.01 | 74 | 1014.9 |
| 20260906150742 | 75 | 55 | 0.0 | 3.0 | 0.00 | 0.07 | 0.01 | 74 | 1014.9 |
| 20260906150640 | 75 | 29 | 0.0 | 3.0 | 0.00 | 0.07 | 0.01 | 72 | 1014.9 |
| 20260906150533 | 75 | 98 | 0.0 | 3.0 | 0.00 | 0.06 | 0.01 | 70 | 1014.9 |
| 20260906150430 | 75 | 93 | 0.0 | 3.0 | 0.00 | 0.06 | 0.01 | 72 | 1014.9 |
| 20260906150327 | 75 | 70 | 0.0 | 3.0 | 0.00 | 0.06 | 0.00 | 71 | 1014.9 |
| 20260906150001 | 75 | 55 | 0.0 | 3.0 | 0.00 | 0.06 | 0.00 | 72 | 1014.9 |
| 20260906145859 | 75 | 34 | 0.0 | 3.0 | 0.00 | 0.06 | 0.00 | 73 | 1014.9 |
| 20260906145750 | 75 | 17 | 0.0 | 3.0 | 0.00 | 0.06 | 0.00 | 74 | 1014.9 |
| 20260906145647 | 75 | 54 | 0.0 | 3.0 | 0.00 | 0.06 | 0.00 | 75 | 1014.8 |
| 20260906145545 | 75 | 292 | 0.0 | 3.0 | 0.00 | 0.06 | 0.00 | 72 | 1014.8 |
| 20260906145440 | 75 | 302 | 0.0 | 3.0 | 0.00 | 0.06 | 0.00 | 74 | 1014.8 |
| 20260906145338 | 75 | 265 | 0.0 | 3.0 | 0.00 | 0.06 | 0.00 | 75 | 1014.8 |
| 20260906145233 | 75 | 15 | 0.0 | 3.0 | 0.00 | 0.06 | 0.00 | 73 | 1014.8 |
| 20260906145131 | 75 | 119 | 0.0 | 3.0 | 0.00 | 0.06 | 0.00 | 75 | 1014.8 |
| 20260906145028 | 75 | 67 | 0.0 | 3.0 | 0.00 | 0.06 | 0.00 | 73 | 1014.8 |
| 20260906144921 | 75 | 0 | 0.0 | 3.0 | 0.00 | 0.06 | 0.00 | 75 | 1014.8 |
| 20260906144815 | 75 | 327 | 0.0 | 3.0 | 0.00 | 0.06 | 0.00 | 74 | 1014.7 |
| 20260906144712 | 75 | 53 | 0.0 | 3.0 | 0.00 | 0.06 | 0.00 | 75 | 1014.7 |
| 20260906144606 | 75 | 305 | 0.0 | 3.0 | 0.00 | 0.06 | 0.00 | 75 | 1014.7 |
| 20260906144503 | 75 | 253 | 0.0 | 3.0 | 0.00 | 0.06 | 0.00 | 78 | 1014.7 |
| 20260906144359 | 75 | 258 | 0.0 | 3.0 | 0.00 | 0.06 | 0.00 | 77 | 1014.7 |
| 20260906144252 | 75 | 355 | 0.0 | 2.0 | 0.00 | 0.06 | 0.00 | 77 | 1014.7 |
| 20260906144149 | 74 | 282 | 0.0 | 2.0 | 0.00 | 0.06 | 0.00 | 81 | 1014.7 |
| 20260906143824 | 74 | 53 | 0.0 | 2.0 | 0.00 | 0.06 | 0.00 | 79 | 1014.6 |
| 20260906143716 | 74 | 53 | 0.0 | 2.0 | 0.00 | 0.06 | 0.00 | 77 | 1014.6 |
| 20260906143613 | 74 | 304 | 0.0 | 2.0 | 0.00 | 0.06 | 0.00 | 79 | 1014.6 |
| 20260906143506 | 74 | 259 | 0.0 | 2.0 | 0.00 | 0.06 | 0.00 | 77 | 1014.6 |
| 20260906143140 | 74 | 233 | 0.0 | 2.0 | 0.00 | 0.06 | 0.00 | 77 | 1014.6 |
| 20260906143035 | 73 | 183 | 0.0 | 4.0 | 0.00 | 0.06 | 0.00 | 76 | 1014.6 |
| 20260906142711 | 74 | 341 | 0.0 | 4.0 | 0.00 | 0.06 | 0.00 | 79 | 1014.6 |
| 20260906142606 | 73 | 350 | 0.0 | 4.0 | 0.00 | 0.06 | 0.00 | 80 | 1014.6 |
| 20260906142502 | 73 | 316 | 0.0 | 4.0 | 0.00 | 0.06 | 0.00 | 80 | 1014.6 |
| 20260906142359 | 73 | 268 | 0.0 | 4.0 | 0.00 | 0.06 | 0.00 | 81 | 1014.6 |
| 20260906142256 | 73 | 321 | 0.0 | 4.0 | 0.00 | 0.06 | 0.00 | 82 | 1014.6 |
| 20260906142152 | 73 | 312 | 0.0 | 4.0 | 0.00 | 0.06 | 0.00 | 81 | 1014.6 |
| 20260906142045 | 73 | 207 | 0.0 | 4.0 | 0.00 | 0.06 | 0.00 | 83 | 1014.6 |
| 20260906141942 | 73 | 355 | 0.0 | 4.0 | 0.00 | 0.06 | 0.00 | 82 | 1014.6 |
| 20260906141836 | 73 | 273 | 0.0 | 4.0 | 0.00 | 0.06 | 0.00 | 80 | 1014.6 |
| 20260906141732 | 72 | 123 | 0.0 | 4.0 | 0.00 | 0.06 | 0.00 | 79 | 1014.7 |
| 20260906141628 | 72 | 24 | 0.0 | 4.0 | 0.00 | 0.06 | 0.00 | 80 | 1014.6 |
| 20260906141520 | 72 | 38 | 0.0 | 4.0 | 0.00 | 0.06 | 0.00 | 83 | 1014.6 |
| 20260906141415 | 72 | 9 | 0.0 | 4.0 | 0.00 | 0.06 | 0.00 | 83 | 1014.6 |
| 20260906141309 | 72 | 5 | 0.0 | 4.0 | 0.00 | 0.06 | 0.00 | 80 | 1014.6 |
| 20260906141206 | 72 | 82 | 0.0 | 4.0 | 0.00 | 0.06 | 0.00 | 79 | 1014.6 |
| 20260906141059 | 72 | 47 | 0.0 | 2.0 | 0.00 | 0.06 | 0.00 | 82 | 1014.6 |
| 20260906140954 | 72 | 47 | 0.0 | 2.0 | 0.00 | 0.06 | 0.00 | 80 | 1014.6 |
| 20260906140409 | 71 | 83 | 0.0 | 2.0 | 0.00 | 0.06 | 0.00 | 81 | 1014.6 |
| 20260906140305 | 71 | 56 | 0.0 | 2.0 | 0.00 | 0.06 | 0.00 | 83 | 1014.7 |
| 20260906140158 | 71 | 24 | 0.0 | 2.0 | 0.00 | 0.06 | 0.00 | 83 | 1014.7 |
| 20260906140054 | 71 | 38 | 0.0 | 2.0 | 0.00 | 0.06 | 0.00 | 88 | 1014.6 |
| 20260906135726 | 71 | 0 | 0.0 | 2.0 | 0.00 | 0.06 | 0.00 | 87 | 1014.6 |
| 20260906135623 | 71 | 355 | 0.0 | 2.0 | 0.00 | 0.06 | 0.00 | 87 | 1014.6 |
| 20260906135517 | 71 | 35 | 0.0 | 2.0 | 0.00 | 0.06 | 0.00 | 86 | 1014.6 |
| 20260906135415 | 71 | 9 | 0.0 | 2.0 | 0.00 | 0.06 | 0.00 | 87 | 1014.6 |
| 20260906135311 | 71 | 310 | 0.0 | 2.0 | 0.00 | 0.06 | 0.00 | 84 | 1014.6 |
| 20260906135205 | 71 | 32 | 0.0 | 2.0 | 0.00 | 0.06 | 0.00 | 81 | 1014.6 |
| 20260906135059 | 71 | 177 | 0.0 | 2.0 | 0.00 | 0.06 | 0.00 | 81 | 1014.5 |
| 20260906134955 | 70 | 144 | 0.0 | 2.0 | 0.00 | 0.06 | 0.00 | 83 | 1014.6 |
| 20260906134849 | 70 | 38 | 0.0 | 2.0 | 0.00 | 0.06 | 0.00 | 85 | 1014.6 |
| 20260906134744 | 70 | 40 | 0.0 | 2.0 | 0.00 | 0.06 | 0.00 | 86 | 1014.6 |
| 20260906134642 | 70 | 348 | 0.0 | 2.0 | 0.00 | 0.06 | 0.00 | 88 | 1014.6 |
| 20260906134536 | 70 | 73 | 0.0 | 2.0 | 0.00 | 0.06 | 0.00 | 84 | 1014.6 |
| 20260906134430 | 70 | 73 | 0.0 | 2.0 | 0.00 | 0.06 | 0.00 | 83 | 1014.6 |
| 20260906134325 | 70 | 73 | 0.0 | 2.0 | 0.00 | 0.06 | 0.00 | 85 | 1014.6 |
| 20260906134219 | 70 | 67 | 0.0 | 2.0 | 0.00 | 0.06 | 0.00 | 85 | 1014.5 |
| 20260906134115 | 70 | 45 | 0.0 | 2.0 | 0.00 | 0.06 | 0.00 | 87 | 1014.6 |
| 20260906134013 | 70 | 229 | 0.0 | 2.0 | 0.00 | 0.06 | 0.00 | 87 | 1014.6 |
| 20260906133908 | 69 | 306 | 0.0 | 2.0 | 0.00 | 0.06 | 0.00 | 87 | 1014.6 |
| 20260906133806 | 69 | 288 | 0.0 | 2.0 | 0.00 | 0.06 | 0.00 | 88 | 1014.6 |
| 20260906133659 | 69 | 68 | 0.0 | 2.0 | 0.00 | 0.06 | 0.00 | 90 | 1014.6 |
| 20260906133557 | 69 | 336 | 0.0 | 2.0 | 0.00 | 0.06 | 0.00 | 89 | 1014.6 |
| 20260906133449 | 69 | 335 | 0.0 | 2.0 | 0.00 | 0.06 | 0.00 | 90 | 1014.6 |
| 20260906133342 | 69 | 284 | 0.0 | 2.0 | 0.00 | 0.06 | 0.00 | 91 | 1014.6 |
| 20260906133238 | 69 | 319 | 0.0 | 2.0 | 0.00 | 0.06 | 0.00 | 91 | 1014.6 |
| 20260906133130 | 69 | 316 | 0.0 | 2.0 | 0.00 | 0.06 | 0.00 | 91 | 1014.6 |
| 20260906133027 | 69 | 265 | 0.0 | 0.0 | 0.00 | 0.06 | 0.00 | 91 | 1014.6 |
| 20260906132920 | 69 | 101 | 0.0 | 0.0 | 0.00 | 0.06 | 0.00 | 91 | 1014.6 |
| 20260906132554 | 69 | 11 | 0.0 | 0.0 | 0.00 | 0.06 | 0.00 | 90 | 1014.5 |
| 20260906132447 | 68 | 19 | 0.0 | 0.0 | 0.00 | 0.06 | 0.00 | 90 | 1014.5 |
| 20260906132343 | 68 | 55 | 0.0 | 0.0 | 0.00 | 0.06 | 0.00 | 90 | 1014.5 |
| 20260906132241 | 68 | 42 | 0.0 | 0.0 | 0.00 | 0.06 | 0.00 | 89 | 1014.5 |
| 20260906131659 | 68 | 51 | 0.0 | 2.0 | 0.00 | 0.06 | 0.00 | 91 | 1014.5 |
| 20260906131335 | 67 | 280 | 0.0 | 0.0 | 0.00 | 0.06 | 0.00 | 91 | 1014.5 |
| 20260906131228 | 67 | 317 | 0.0 | 0.0 | 0.00 | 0.06 | 0.00 | 89 | 1014.4 |
| 20260906130858 | 67 | 296 | 0.0 | 1.0 | 0.00 | 0.06 | 0.00 | 93 | 1014.4 |
| 20260906130756 | 66 | 296 | 0.0 | 1.0 | 0.00 | 0.06 | 0.00 | 96 | 1014.4 |
| 20260906130654 | 66 | 338 | 0.0 | 1.0 | 0.00 | 0.06 | 0.00 | 97 | 1014.4 |
| 20260906130550 | 66 | 308 | 0.0 | 1.0 | 0.00 | 0.06 | 0.00 | 97 | 1014.4 |
| 20260906130223 | 65 | 345 | 0.0 | 1.0 | 0.00 | 0.06 | 0.00 | 97 | 1014.3 |
| 20260906130119 | 65 | 345 | 0.0 | 1.0 | 0.00 | 0.06 | 0.00 | 97 | 1014.3 |
| 20260906125751 | 65 | 5 | 0.0 | 2.0 | 0.00 | 0.06 | 0.00 | 97 | 1014.4 |
| 20260906125646 | 65 | 19 | 0.0 | 2.0 | 0.00 | 0.06 | 0.00 | 97 | 1014.4 |
| 20260906125539 | 65 | 19 | 0.0 | 2.0 | 0.00 | 0.06 | 0.00 | 97 | 1014.4 |
| 20260906125437 | 64 | 0 | 0.0 | 2.0 | 0.00 | 0.06 | 0.00 | 97 | 1014.4 |
| 20260906125114 | 64 | 0 | 0.0 | 2.0 | 0.00 | 0.06 | 0.00 | 97 | 1014.4 |
| 20260906124745 | 64 | 11 | 0.0 | 2.0 | 0.00 | 0.06 | 0.00 | 97 | 1014.4 |
| 20260906124643 | 64 | 11 | 0.0 | 2.0 | 0.00 | 0.06 | 0.00 | 97 | 1014.4 |
| 20260906124539 | 64 | 11 | 0.0 | 2.0 | 0.00 | 0.06 | 0.00 | 97 | 1014.3 |
| 20260906124432 | 64 | 11 | 0.0 | 2.0 | 0.00 | 0.06 | 0.00 | 97 | 1014.4 |
| 20260906124326 | 64 | 11 | 0.0 | 2.0 | 0.00 | 0.06 | 0.00 | 97 | 1014.4 |
| 20260906124219 | 64 | 53 | 0.0 | 2.0 | 0.00 | 0.06 | 0.00 | 97 | 1014.4 |
| 20260906123852 | 64 | 325 | 0.0 | 2.0 | 0.00 | 0.06 | 0.00 | 97 | 1014.4 |
| 20260906123748 | 64 | 336 | 0.0 | 1.0 | 0.00 | 0.06 | 0.00 | 97 | 1014.4 |
| 20260906123645 | 64 | 336 | 0.0 | 1.0 | 0.00 | 0.06 | 0.00 | 97 | 1014.4 |
| 20260906123326 | 64 | 311 | 0.0 | 1.0 | 0.00 | 0.06 | 0.00 | 97 | 1014.4 |
| 20260906123222 | 64 | 311 | 0.0 | 1.0 | 0.00 | 0.06 | 0.00 | 97 | 1014.3 |
| 20260906123120 | 64 | 311 | 0.0 | 1.0 | 0.00 | 0.06 | 0.00 | 97 | 1014.3 |
| 20260906122756 | 64 | 314 | 0.0 | 1.0 | 0.00 | 0.06 | 0.00 | 97 | 1014.3 |
| 20260906122650 | 64 | 323 | 0.0 | 1.0 | 0.00 | 0.06 | 0.00 | 97 | 1014.3 |
| 20260906122548 | 64 | 323 | 0.0 | 1.0 | 0.00 | 0.06 | 0.00 | 97 | 1014.3 |
| 20260906122446 | 64 | 323 | 0.0 | 1.0 | 0.00 | 0.06 | 0.00 | 97 | 1014.3 |
| 20260906122339 | 63 | 323 | 0.0 | 1.0 | 0.00 | 0.06 | 0.00 | 97 | 1014.3 |
| 20260906122233 | 63 | 323 | 0.0 | 1.0 | 0.00 | 0.06 | 0.00 | 97 | 1014.3 |
| 20260906122131 | 63 | 323 | 0.0 | 1.0 | 0.00 | 0.06 | 0.00 | 97 | 1014.3 |
| 20260906122026 | 63 | 323 | 0.0 | 0.0 | 0.00 | 0.06 | 0.00 | 97 | 1014.3 |
| 20260906121446 | 63 | 323 | 0.0 | 0.0 | 0.00 | 0.06 | 0.00 | 97 | 1014.2 |
| 20260906121338 | 63 | 323 | 0.0 | 0.0 | 0.00 | 0.06 | 0.00 | 97 | 1014.2 |
| 20260906121236 | 63 | 323 | 0.0 | 0.0 | 0.00 | 0.06 | 0.00 | 97 | 1014.2 |
| 20260906121127 | 63 | 323 | 0.0 | 0.0 | 0.00 | 0.06 | 0.00 | 97 | 1014.1 |
| 20260906121023 | 63 | 323 | 0.0 | 0.0 | 0.00 | 0.06 | 0.00 | 97 | 1014.1 |
| 20260906120918 | 63 | 294 | 0.0 | 0.0 | 0.00 | 0.06 | 0.00 | 97 | 1014.1 |
| 20260906120813 | 63 | 294 | 0.0 | 0.0 | 0.00 | 0.06 | 0.00 | 97 | 1014.1 |
| 20260906120452 | 63 | 294 | 0.0 | 0.0 | 0.00 | 0.06 | 0.00 | 97 | 1014.0 |
| 20260906120128 | 63 | 294 | 0.0 | 0.0 | 0.00 | 0.06 | 0.00 | 97 | 1014.0 |
| 20260906120021 | 63 | 294 | 0.0 | 0.0 | 0.00 | 0.06 | 0.00 | 97 | 1014.0 |
| 20260906115657 | 63 | 294 | 0.0 | 0.0 | 0.00 | 0.06 | 0.00 | 97 | 1014.0 |
| 20260906115554 | 63 | 294 | 0.0 | 0.0 | 0.00 | 0.06 | 0.00 | 97 | 1014.1 |
| 20260906114747 | 63 | 298 | 0.0 | 0.0 | 0.00 | 0.06 | 0.00 | 97 | 1013.8 |
| 20260906114643 | 63 | 298 | 0.0 | 0.0 | 0.00 | 0.06 | 0.00 | 97 | 1013.8 |
| 20260906114323 | 63 | 252 | 0.0 | 0.0 | 0.00 | 0.06 | 0.00 | 97 | 1013.8 |
| 20260906114221 | 63 | 252 | 0.0 | 0.0 | 0.00 | 0.06 | 0.00 | 97 | 1013.8 |
| 20260906114117 | 63 | 252 | 0.0 | 0.0 | 0.00 | 0.06 | 0.00 | 97 | 1013.8 |
| 20260906114015 | 63 | 252 | 0.0 | 0.0 | 0.00 | 0.06 | 0.00 | 97 | 1013.8 |
| 20260906113907 | 63 | 252 | 0.0 | 0.0 | 0.00 | 0.06 | 0.00 | 97 | 1013.8 |
| 20260906113802 | 63 | 252 | 0.0 | 0.0 | 0.00 | 0.06 | 0.00 | 97 | 1013.8 |
| 20260906113437 | 63 | 252 | 0.0 | 0.0 | 0.00 | 0.06 | 0.00 | 97 | 1013.7 |
| 20260906113336 | 63 | 252 | 0.0 | 0.0 | 0.00 | 0.06 | 0.00 | 97 | 1013.7 |
| 20260906113016 | 63 | 252 | 0.0 | 0.0 | 0.00 | 0.06 | 0.00 | 97 | 1013.7 |
| 20260906112914 | 63 | 252 | 0.0 | 0.0 | 0.00 | 0.06 | 0.00 | 96 | 1013.7 |
| 20260906112810 | 63 | 252 | 0.0 | 0.0 | 0.00 | 0.06 | 0.00 | 97 | 1013.7 |
| 20260906112225 | 63 | 252 | 0.0 | 0.0 | 0.00 | 0.06 | 0.00 | 97 | 1013.6 |
| 20260906112120 | 63 | 252 | 0.0 | 0.0 | 0.00 | 0.06 | 0.00 | 96 | 1013.6 |
| 20260906112014 | 63 | 252 | 0.0 | 0.0 | 0.00 | 0.06 | 0.00 | 97 | 1013.6 |
| 20260906111647 | 63 | 337 | 0.0 | 0.0 | 0.00 | 0.06 | 0.00 | 97 | 1013.6 |
| 20260906111100 | 63 | 337 | 0.0 | 0.0 | 0.00 | 0.06 | 0.00 | 96 | 1013.6 |
| 20260906110956 | 63 | 337 | 0.0 | 0.0 | 0.00 | 0.06 | 0.00 | 96 | 1013.5 |
| 20260906110851 | 63 | 337 | 0.0 | 0.0 | 0.00 | 0.06 | 0.00 | 96 | 1013.5 |
| 20260906110745 | 63 | 337 | 0.0 | 0.0 | 0.00 | 0.06 | 0.00 | 96 | 1013.5 |
| 20260906110420 | 63 | 337 | 0.0 | 0.0 | 0.00 | 0.06 | 0.00 | 96 | 1013.5 |
| 20260906110313 | 63 | 337 | 0.0 | 0.0 | 0.00 | 0.06 | 0.00 | 96 | 1013.5 |
| 20260906105950 | 63 | 337 | 0.0 | 0.0 | 0.00 | 0.06 | 0.00 | 96 | 1013.4 |
| 20260906105843 | 63 | 337 | 0.0 | 1.0 | 0.00 | 0.06 | 0.00 | 96 | 1013.4 |
| 20260906105739 | 63 | 337 | 0.0 | 1.0 | 0.00 | 0.06 | 0.00 | 96 | 1013.4 |
| 20260906105631 | 63 | 337 | 0.0 | 0.0 | 0.00 | 0.06 | 0.00 | 96 | 1013.3 |
| 20260906105528 | 63 | 337 | 0.0 | 0.0 | 0.00 | 0.06 | 0.00 | 96 | 1013.4 |
| 20260906105423 | 63 | 337 | 0.0 | 0.0 | 0.00 | 0.06 | 0.00 | 96 | 1013.3 |
| 20260906105316 | 63 | 337 | 0.0 | 0.0 | 0.00 | 0.06 | 0.00 | 96 | 1013.5 |
| 20260906105209 | 63 | 337 | 0.0 | 0.0 | 0.00 | 0.06 | 0.00 | 96 | 1013.4 |
| 20260906105102 | 63 | 337 | 0.0 | 0.0 | 0.00 | 0.06 | 0.00 | 96 | 1013.4 |
| 20260906104956 | 63 | 337 | 0.0 | 0.0 | 0.00 | 0.06 | 0.00 | 96 | 1013.3 |
| 20260906104849 | 63 | 337 | 0.0 | 0.0 | 0.00 | 0.06 | 0.00 | 96 | 1013.3 |
| 20260906104528 | 63 | 337 | 0.0 | 0.0 | 0.00 | 0.06 | 0.00 | 96 | 1013.2 |
| 20260906104422 | 63 | 337 | 0.0 | 0.0 | 0.00 | 0.06 | 0.00 | 96 | 1013.2 |
| 20260906104317 | 63 | 337 | 0.0 | 0.0 | 0.00 | 0.06 | 0.00 | 96 | 1013.2 |
| 20260906104211 | 63 | 337 | 0.0 | 0.0 | 0.00 | 0.06 | 0.00 | 96 | 1013.2 |
| 20260906103843 | 63 | 337 | 0.0 | 0.0 | 0.00 | 0.06 | 0.00 | 96 | 1013.1 |
| 20260906103742 | 63 | 337 | 0.0 | 0.0 | 0.00 | 0.06 | 0.00 | 96 | 1013.1 |
| 20260906103637 | 63 | 337 | 0.0 | 0.0 | 0.00 | 0.06 | 0.00 | 96 | 1013.1 |
| 20260906103532 | 63 | 337 | 0.0 | 0.0 | 0.00 | 0.06 | 0.00 | 96 | 1013.0 |
| 20260906103429 | 63 | 337 | 0.0 | 0.0 | 0.00 | 0.06 | 0.00 | 96 | 1013.0 |
| 20260906103327 | 63 | 337 | 0.0 | 0.0 | 0.00 | 0.06 | 0.00 | 96 | 1013.1 |
| 20260906102743 | 63 | 337 | 0.0 | 0.0 | 0.00 | 0.06 | 0.00 | 96 | 1013.0 |
| 20260906102636 | 63 | 337 | 0.0 | 0.0 | 0.00 | 0.06 | 0.00 | 96 | 1013.0 |
| 20260906102531 | 63 | 337 | 0.0 | 0.0 | 0.00 | 0.06 | 0.00 | 96 | 1013.0 |
| 20260906102428 | 63 | 337 | 0.0 | 0.0 | 0.00 | 0.06 | 0.00 | 96 | 1013.0 |
| 20260906102323 | 63 | 337 | 0.0 | 0.0 | 0.00 | 0.06 | 0.00 | 96 | 1013.0 |
| 20260906102216 | 63 | 337 | 0.0 | 0.0 | 0.00 | 0.06 | 0.00 | 96 | 1013.0 |
| 20260906102112 | 63 | 337 | 0.0 | 0.0 | 0.00 | 0.06 | 0.00 | 96 | 1013.0 |
| 20260906102011 | 63 | 337 | 0.0 | 0.0 | 0.00 | 0.06 | 0.00 | 96 | 1013.0 |
| 20260906101907 | 63 | 337 | 0.0 | 0.0 | 0.00 | 0.06 | 0.00 | 96 | 1012.9 |
| 20260906101804 | 63 | 337 | 0.0 | 0.0 | 0.00 | 0.06 | 0.00 | 96 | 1013.0 |
| 20260906101700 | 63 | 337 | 0.0 | 0.0 | 0.00 | 0.06 | 0.00 | 96 | 1012.9 |
| 20260906101553 | 63 | 337 | 0.0 | 0.0 | 0.00 | 0.06 | 0.00 | 96 | 1012.9 |
| 20260906101450 | 63 | 337 | 0.0 | 0.0 | 0.00 | 0.06 | 0.00 | 96 | 1012.9 |
| 20260906101125 | 63 | 337 | 0.0 | 0.0 | 0.00 | 0.06 | 0.00 | 96 | 1012.8 |
| 20260906100803 | 63 | 337 | 0.0 | 0.0 | 0.00 | 0.06 | 0.00 | 96 | 1012.8 |
| 20260906100214 | 63 | 337 | 0.0 | 0.0 | 0.00 | 0.06 | 0.00 | 96 | 1012.8 |
| 20260906095855 | 63 | 337 | 0.0 | 0.0 | 0.00 | 0.06 | 0.00 | 96 | 1012.7 |
| 20260906095751 | 63 | 337 | 0.0 | 0.0 | 0.00 | 0.06 | 0.00 | 96 | 1012.8 |
| 20260906095645 | 63 | 337 | 0.0 | 0.0 | 0.00 | 0.06 | 0.00 | 96 | 1012.7 |
| 20260906095322 | 63 | 337 | 0.0 | 0.0 | 0.00 | 0.06 | 0.00 | 96 | 1012.7 |
| 20260906095217 | 63 | 337 | 0.0 | 0.0 | 0.00 | 0.06 | 0.00 | 96 | 1012.6 |
| 20260906095111 | 63 | 337 | 0.0 | 0.0 | 0.00 | 0.06 | 0.00 | 96 | 1012.6 |
| 20260906095005 | 63 | 337 | 0.0 | 0.0 | 0.00 | 0.06 | 0.00 | 96 | 1012.6 |
| 20260906094419 | 63 | 337 | 0.0 | 0.0 | 0.00 | 0.06 | 0.00 | 96 | 1012.6 |
| 20260906094317 | 63 | 337 | 0.0 | 0.0 | 0.00 | 0.06 | 0.00 | 96 | 1012.6 |
| 20260906094215 | 64 | 337 | 0.0 | 0.0 | 0.00 | 0.06 | 0.00 | 96 | 1012.6 |
| 20260906094111 | 64 | 337 | 0.0 | 0.0 | 0.00 | 0.06 | 0.00 | 96 | 1012.6 |
| 20260906094008 | 64 | 337 | 0.0 | 0.0 | 0.00 | 0.06 | 0.00 | 96 | 1012.6 |
| 20260906093901 | 64 | 337 | 0.0 | 0.0 | 0.00 | 0.06 | 0.00 | 96 | 1012.6 |
| 20260906093759 | 64 | 337 | 0.0 | 0.0 | 0.00 | 0.06 | 0.00 | 96 | 1012.6 |
| 20260906093654 | 64 | 337 | 0.0 | 0.0 | 0.00 | 0.06 | 0.00 | 96 | 1012.6 |
| 20260906093549 | 64 | 337 | 0.0 | 0.0 | 0.00 | 0.06 | 0.00 | 96 | 1012.5 |
| 20260906093443 | 64 | 337 | 0.0 | 0.0 | 0.00 | 0.06 | 0.00 | 96 | 1012.5 |
| 20260906093340 | 64 | 337 | 0.0 | 0.0 | 0.00 | 0.06 | 0.00 | 96 | 1012.5 |
| 20260906093237 | 64 | 337 | 0.0 | 0.0 | 0.00 | 0.06 | 0.00 | 96 | 1012.6 |
| 20260906093135 | 64 | 337 | 0.0 | 0.0 | 0.00 | 0.06 | 0.00 | 96 | 1012.6 |
| 20260906092812 | 64 | 337 | 0.0 | 0.0 | 0.00 | 0.06 | 0.00 | 96 | 1012.5 |
| 20260906092708 | 64 | 337 | 0.0 | 0.0 | 0.00 | 0.06 | 0.00 | 96 | 1012.4 |
| 20260906092601 | 64 | 337 | 0.0 | 0.0 | 0.00 | 0.06 | 0.00 | 96 | 1012.4 |
| 20260906092456 | 64 | 337 | 0.0 | 0.0 | 0.00 | 0.06 | 0.00 | 96 | 1012.5 |
| 20260906092354 | 64 | 337 | 0.0 | 0.0 | 0.00 | 0.06 | 0.00 | 96 | 1012.5 |
| 20260906092248 | 64 | 337 | 0.0 | 0.0 | 0.00 | 0.06 | 0.00 | 96 | 1012.4 |
| 20260906092144 | 64 | 337 | 0.0 | 0.0 | 0.00 | 0.06 | 0.00 | 96 | 1012.5 |
| 20260906092041 | 64 | 337 | 0.0 | 0.0 | 0.00 | 0.06 | 0.00 | 97 | 1012.4 |
| 20260906091936 | 64 | 337 | 0.0 | 0.0 | 0.00 | 0.06 | 0.00 | 96 | 1012.4 |
| 20260906091831 | 64 | 337 | 0.0 | 0.0 | 0.00 | 0.06 | 0.00 | 96 | 1012.4 |
| 20260906091509 | 64 | 337 | 0.0 | 0.0 | 0.00 | 0.06 | 0.00 | 96 | 1012.4 |
| 20260906091146 | 64 | 337 | 0.0 | 0.0 | 0.00 | 0.06 | 0.00 | 96 | 1012.4 |
| 20260906091040 | 64 | 337 | 0.0 | 0.0 | 0.00 | 0.06 | 0.00 | 96 | 1012.4 |
| 20260906090934 | 64 | 337 | 0.0 | 0.0 | 0.00 | 0.06 | 0.00 | 96 | 1012.3 |
| 20260906090831 | 64 | 337 | 0.0 | 0.0 | 0.00 | 0.06 | 0.00 | 96 | 1012.3 |
| 20260906090725 | 64 | 337 | 0.0 | 0.0 | 0.00 | 0.06 | 0.00 | 96 | 1012.3 |
| 20260906090619 | 64 | 337 | 0.0 | 0.0 | 0.00 | 0.06 | 0.00 | 96 | 1012.2 |
| 20260906090514 | 64 | 337 | 0.0 | 0.0 | 0.00 | 0.06 | 0.00 | 96 | 1012.3 |
| 20260906090405 | 64 | 337 | 0.0 | 0.0 | 0.00 | 0.06 | 0.00 | 96 | 1012.3 |
| 20260906090301 | 64 | 337 | 0.0 | 0.0 | 0.00 | 0.06 | 0.00 | 96 | 1012.3 |
| 20260906090157 | 64 | 337 | 0.0 | 0.0 | 0.00 | 0.06 | 0.00 | 96 | 1012.3 |
| 20260906085831 | 64 | 337 | 0.0 | 0.0 | 0.00 | 0.06 | 0.00 | 96 | 1012.2 |
| 20260906085728 | 64 | 337 | 0.0 | 0.0 | 0.00 | 0.06 | 0.00 | 96 | 1012.2 |
| 20260906085621 | 64 | 337 | 0.0 | 0.0 | 0.00 | 0.06 | 0.00 | 96 | 1012.2 |
| 20260906085517 | 64 | 337 | 0.0 | 0.0 | 0.00 | 0.06 | 0.00 | 96 | 1012.2 |
| 20260906085415 | 64 | 337 | 0.0 | 0.0 | 0.00 | 0.06 | 0.00 | 96 | 1012.2 |
| 20260906085311 | 64 | 337 | 0.0 | 0.0 | 0.00 | 0.06 | 0.00 | 96 | 1012.2 |
| 20260906085208 | 64 | 337 | 0.0 | 0.0 | 0.00 | 0.06 | 0.00 | 96 | 1012.1 |
| 20260906085103 | 64 | 337 | 0.0 | 0.0 | 0.00 | 0.06 | 0.00 | 96 | 1012.1 |
| 20260906084734 | 64 | 337 | 0.0 | 0.0 | 0.00 | 0.06 | 0.00 | 96 | 1012.0 |
| 20260906084628 | 64 | 337 | 0.0 | 0.0 | 0.00 | 0.06 | 0.00 | 96 | 1012.0 |
| 20260906084525 | 64 | 337 | 0.0 | 0.0 | 0.00 | 0.06 | 0.00 | 96 | 1012.0 |
| 20260906084202 | 64 | 337 | 0.0 | 0.0 | 0.00 | 0.06 | 0.00 | 96 | 1011.9 |
| 20260906083834 | 64 | 337 | 0.0 | 0.0 | 0.00 | 0.06 | 0.00 | 96 | 1011.9 |
| 20260906083731 | 64 | 337 | 0.0 | 0.0 | 0.00 | 0.06 | 0.00 | 96 | 1011.9 |
| 20260906083628 | 64 | 337 | 0.0 | 0.0 | 0.00 | 0.06 | 0.00 | 96 | 1011.9 |
| 20260906083521 | 64 | 337 | 0.0 | 0.0 | 0.00 | 0.06 | 0.00 | 96 | 1011.9 |
| 20260906083416 | 64 | 337 | 0.0 | 0.0 | 0.00 | 0.06 | 0.00 | 96 | 1011.9 |
| 20260906083312 | 64 | 337 | 0.0 | 0.0 | 0.00 | 0.06 | 0.00 | 96 | 1011.9 |
| 20260906083207 | 64 | 337 | 0.0 | 0.0 | 0.00 | 0.06 | 0.00 | 96 | 1011.9 |
| 20260906083101 | 64 | 337 | 0.0 | 0.0 | 0.00 | 0.06 | 0.00 | 96 | 1012.0 |
| 20260906082956 | 64 | 337 | 0.0 | 0.0 | 0.00 | 0.06 | 0.00 | 96 | 1011.9 |
| 20260906082850 | 64 | 337 | 0.0 | 0.0 | 0.00 | 0.06 | 0.00 | 96 | 1011.9 |
| 20260906082523 | 64 | 337 | 0.0 | 0.0 | 0.00 | 0.06 | 0.00 | 96 | 1012.0 |
| 20260906082417 | 64 | 337 | 0.0 | 0.0 | 0.00 | 0.06 | 0.00 | 96 | 1011.9 |
| 20260906082311 | 65 | 337 | 0.0 | 0.0 | 0.00 | 0.06 | 0.00 | 96 | 1011.9 |
| 20260906081501 | 65 | 337 | 0.0 | 0.0 | 0.00 | 0.06 | 0.00 | 96 | 1011.8 |
| 20260906081357 | 65 | 337 | 0.0 | 0.0 | 0.00 | 0.06 | 0.00 | 96 | 1011.8 |
| 20260906081251 | 65 | 337 | 0.0 | 0.0 | 0.00 | 0.06 | 0.00 | 96 | 1011.8 |
| 20260906081147 | 65 | 337 | 0.0 | 0.0 | 0.00 | 0.06 | 0.00 | 96 | 1011.8 |
| 20260906081043 | 65 | 337 | 0.0 | 0.0 | 0.00 | 0.06 | 0.00 | 96 | 1011.8 |
| 20260906080937 | 65 | 337 | 0.0 | 0.0 | 0.00 | 0.06 | 0.00 | 96 | 1011.8 |
| 20260906080612 | 65 | 337 | 0.0 | 0.0 | 0.00 | 0.06 | 0.00 | 96 | 1011.8 |
| 20260906080509 | 65 | 337 | 0.0 | 0.0 | 0.00 | 0.06 | 0.00 | 96 | 1011.8 |
| 20260906080403 | 65 | 337 | 0.0 | 0.0 | 0.00 | 0.06 | 0.00 | 96 | 1011.8 |
| 20260906080255 | 65 | 337 | 0.0 | 0.0 | 0.00 | 0.06 | 0.00 | 96 | 1011.8 |
| 20260906080152 | 65 | 337 | 0.0 | 0.0 | 0.00 | 0.06 | 0.00 | 96 | 1011.8 |
| 20260906075829 | 65 | 337 | 0.0 | 0.0 | 0.00 | 0.06 | 0.00 | 96 | 1011.8 |
| 20260906075725 | 65 | 337 | 0.0 | 0.0 | 0.00 | 0.06 | 0.00 | 96 | 1011.8 |
| 20260906075618 | 65 | 337 | 0.0 | 0.0 | 0.00 | 0.06 | 0.00 | 96 | 1011.8 |
| 20260906075515 | 65 | 337 | 0.0 | 0.0 | 0.00 | 0.06 | 0.00 | 96 | 1011.8 |
| 20260906075153 | 65 | 337 | 0.0 | 0.0 | 0.00 | 0.06 | 0.00 | 96 | 1011.8 |
| 20260906074829 | 65 | 304 | 0.0 | 0.0 | 0.00 | 0.06 | 0.00 | 96 | 1011.8 |
| 20260906074725 | 65 | 304 | 0.0 | 0.0 | 0.00 | 0.06 | 0.00 | 96 | 1011.7 |
| 20260906074620 | 65 | 303 | 0.0 | 0.0 | 0.00 | 0.06 | 0.00 | 96 | 1011.7 |
| 20260906074518 | 65 | 304 | 0.0 | 0.0 | 0.00 | 0.06 | 0.00 | 96 | 1011.7 |
| 20260906074412 | 65 | 304 | 0.0 | 0.0 | 0.00 | 0.06 | 0.00 | 96 | 1011.7 |
| 20260906074306 | 65 | 304 | 0.0 | 0.0 | 0.00 | 0.06 | 0.00 | 96 | 1011.7 |
| 20260906073941 | 65 | 304 | 0.0 | 0.0 | 0.00 | 0.06 | 0.00 | 96 | 1011.6 |
| 20260906073616 | 65 | 304 | 0.0 | 0.0 | 0.00 | 0.06 | 0.00 | 96 | 1011.7 |
| 20260906073249 | 65 | 304 | 0.0 | 0.0 | 0.00 | 0.06 | 0.00 | 96 | 1011.8 |
| 20260906073143 | 65 | 304 | 0.0 | 0.0 | 0.00 | 0.06 | 0.00 | 96 | 1011.8 |
| 20260906073037 | 65 | 304 | 0.0 | 0.0 | 0.00 | 0.06 | 0.00 | 96 | 1011.8 |
| 20260906072931 | 65 | 304 | 0.0 | 0.0 | 0.00 | 0.06 | 0.00 | 96 | 1011.8 |
| 20260906072829 | 65 | 304 | 0.0 | 0.0 | 0.00 | 0.06 | 0.00 | 96 | 1011.8 |
| 20260906072504 | 65 | 304 | 0.0 | 0.0 | 0.00 | 0.06 | 0.00 | 96 | 1011.8 |
| 20260906072401 | 65 | 304 | 0.0 | 0.0 | 0.00 | 0.06 | 0.00 | 96 | 1011.8 |
| 20260906072258 | 66 | 304 | 0.0 | 0.0 | 0.00 | 0.06 | 0.00 | 96 | 1011.8 |
| 20260906072156 | 66 | 304 | 0.0 | 0.0 | 0.00 | 0.06 | 0.00 | 96 | 1011.8 |
| 20260906072052 | 66 | 304 | 0.0 | 0.0 | 0.00 | 0.06 | 0.00 | 96 | 1011.7 |
| 20260906071725 | 66 | 304 | 0.0 | 0.0 | 0.00 | 0.06 | 0.00 | 96 | 1011.7 |
| 20260906071617 | 66 | 304 | 0.0 | 0.0 | 0.00 | 0.06 | 0.00 | 96 | 1011.7 |
| 20260906071510 | 66 | 304 | 0.0 | 0.0 | 0.00 | 0.06 | 0.00 | 96 | 1011.7 |
| 20260906071408 | 66 | 304 | 0.0 | 0.0 | 0.00 | 0.06 | 0.00 | 96 | 1011.7 |
| 20260906071305 | 66 | 304 | 0.0 | 0.0 | 0.00 | 0.06 | 0.00 | 96 | 1011.7 |
| 20260906071200 | 66 | 304 | 0.0 | 0.0 | 0.00 | 0.06 | 0.00 | 96 | 1011.8 |
| 20260906071053 | 66 | 304 | 0.0 | 0.0 | 0.00 | 0.06 | 0.00 | 96 | 1011.7 |
| 20260906070946 | 66 | 304 | 0.0 | 0.0 | 0.00 | 0.06 | 0.00 | 96 | 1011.7 |
| 20260906070622 | 66 | 304 | 0.0 | 0.0 | 0.00 | 0.06 | 0.00 | 96 | 1011.7 |
| 20260906070516 | 66 | 304 | 0.0 | 0.0 | 0.00 | 0.06 | 0.00 | 96 | 1011.7 |
| 20260906070411 | 66 | 304 | 0.0 | 0.0 | 0.00 | 0.06 | 0.00 | 96 | 1011.7 |
| 20260906065602 | 66 | 304 | 0.0 | 0.0 | 0.00 | 0.06 | 0.00 | 96 | 1011.8 |
| 20260906065456 | 66 | 304 | 0.0 | 0.0 | 0.00 | 0.06 | 0.00 | 96 | 1011.8 |
| 20260906065354 | 66 | 304 | 0.0 | 0.0 | 0.00 | 0.06 | 0.00 | 96 | 1011.8 |
| 20260906065248 | 66 | 304 | 0.0 | 0.0 | 0.00 | 0.06 | 0.00 | 96 | 1011.9 |
| 20260906065143 | 66 | 304 | 0.0 | 0.0 | 0.00 | 0.06 | 0.00 | 96 | 1011.8 |
| 20260906065039 | 66 | 304 | 0.0 | 0.0 | 0.00 | 0.06 | 0.00 | 96 | 1011.9 |
| 20260906064936 | 66 | 304 | 0.0 | 0.0 | 0.00 | 0.06 | 0.00 | 96 | 1011.9 |
| 20260906064834 | 66 | 304 | 0.0 | 0.0 | 0.00 | 0.06 | 0.00 | 96 | 1011.9 |
| 20260906064729 | 66 | 304 | 0.0 | 0.0 | 0.00 | 0.06 | 0.00 | 96 | 1011.8 |
| 20260906064626 | 66 | 304 | 0.0 | 0.0 | 0.00 | 0.06 | 0.00 | 96 | 1011.8 |
| 20260906064519 | 67 | 304 | 0.0 | 0.0 | 0.00 | 0.06 | 0.00 | 96 | 1011.9 |
| 20260906064412 | 67 | 304 | 0.0 | 0.0 | 0.00 | 0.06 | 0.00 | 96 | 1011.9 |
| 20260906064306 | 67 | 304 | 0.0 | 0.0 | 0.00 | 0.06 | 0.00 | 96 | 1011.9 |
| 20260906064202 | 67 | 304 | 0.0 | 0.0 | 0.00 | 0.06 | 0.00 | 96 | 1011.9 |
| 20260906064054 | 67 | 304 | 0.0 | 0.0 | 0.00 | 0.06 | 0.00 | 96 | 1011.9 |
| 20260906063948 | 67 | 304 | 0.0 | 0.0 | 0.00 | 0.06 | 0.00 | 96 | 1011.9 |
| 20260906063844 | 67 | 304 | 0.0 | 0.0 | 0.00 | 0.06 | 0.00 | 96 | 1011.9 |
| 20260906063736 | 67 | 304 | 0.0 | 0.0 | 0.00 | 0.06 | 0.00 | 96 | 1011.9 |
| 20260906063629 | 67 | 304 | 0.0 | 0.0 | 0.00 | 0.06 | 0.00 | 96 | 1011.8 |
| 20260906063041 | 67 | 304 | 0.0 | 0.0 | 0.00 | 0.06 | 0.00 | 96 | 1011.9 |
| 20260906062934 | 67 | 304 | 0.0 | 0.0 | 0.00 | 0.06 | 0.00 | 96 | 1011.8 |
| 20260906062827 | 67 | 304 | 0.0 | 0.0 | 0.00 | 0.06 | 0.00 | 96 | 1011.9 |
| 20260906062502 | 67 | 304 | 0.0 | 0.0 | 0.00 | 0.06 | 0.00 | 96 | 1011.8 |
| 20260906062359 | 67 | 304 | 0.0 | 0.0 | 0.00 | 0.06 | 0.00 | 96 | 1011.8 |
| 20260906062034 | 67 | 304 | 0.0 | 0.0 | 0.00 | 0.06 | 0.00 | 96 | 1011.8 |
| 20260906061713 | 67 | 304 | 0.0 | 0.0 | 0.00 | 0.06 | 0.00 | 96 | 1011.8 |
| 20260906061607 | 67 | 304 | 0.0 | 0.0 | 0.00 | 0.06 | 0.00 | 96 | 1011.8 |
| 20260906061502 | 67 | 304 | 0.0 | 0.0 | 0.00 | 0.06 | 0.00 | 96 | 1011.8 |
| 20260906061357 | 67 | 304 | 0.0 | 0.0 | 0.00 | 0.06 | 0.00 | 96 | 1011.7 |
| 20260906061249 | 67 | 304 | 0.0 | 0.0 | 0.00 | 0.06 | 0.00 | 96 | 1011.7 |
| 20260906061143 | 67 | 304 | 0.0 | 0.0 | 0.00 | 0.06 | 0.00 | 96 | 1011.7 |
| 20260906061036 | 67 | 304 | 0.0 | 0.0 | 0.00 | 0.06 | 0.00 | 96 | 1011.7 |
| 20260906060934 | 67 | 304 | 0.0 | 0.0 | 0.00 | 0.06 | 0.00 | 96 | 1011.7 |
| 20260906060827 | 67 | 304 | 0.0 | 0.0 | 0.00 | 0.06 | 0.00 | 96 | 1011.7 |
| 20260906060506 | 67 | 304 | 0.0 | 0.0 | 0.00 | 0.06 | 0.00 | 96 | 1011.6 |
| 20260906060400 | 67 | 303 | 0.0 | 0.0 | 0.00 | 0.06 | 0.00 | 96 | 1011.7 |
| 20260906060255 | 67 | 304 | 0.0 | 0.0 | 0.00 | 0.06 | 0.00 | 96 | 1011.7 |
| 20260906060149 | 67 | 304 | 0.0 | 0.0 | 0.00 | 0.06 | 0.00 | 96 | 1011.7 |
| 20260906060042 | 67 | 304 | 0.0 | 0.0 | 0.00 | 0.06 | 0.00 | 96 | 1011.7 |
| 20260906055937 | 67 | 304 | 0.0 | 0.0 | 0.00 | 0.06 | 0.00 | 96 | 1011.7 |
| 20260906055834 | 67 | 304 | 0.0 | 0.0 | 0.00 | 0.06 | 0.00 | 96 | 1011.7 |
| 20260906055728 | 67 | 304 | 0.0 | 0.0 | 0.00 | 0.06 | 0.00 | 96 | 1011.7 |
| 20260906055627 | 68 | 304 | 0.0 | 0.0 | 0.00 | 0.06 | 0.00 | 96 | 1011.7 |
| 20260906055523 | 68 | 304 | 0.0 | 0.0 | 0.00 | 0.06 | 0.00 | 96 | 1011.7 |
| 20260906055417 | 68 | 304 | 0.0 | 0.0 | 0.00 | 0.06 | 0.00 | 96 | 1011.6 |
| 20260906055052 | 68 | 304 | 0.0 | 0.0 | 0.00 | 0.06 | 0.00 | 96 | 1011.6 |
| 20260906054944 | 68 | 304 | 0.0 | 0.0 | 0.00 | 0.06 | 0.00 | 96 | 1011.6 |
| 20260906054619 | 68 | 304 | 0.0 | 0.0 | 0.00 | 0.06 | 0.00 | 96 | 1011.7 |
| 20260906054516 | 68 | 304 | 0.0 | 0.0 | 0.00 | 0.06 | 0.00 | 96 | 1011.7 |
| 20260906054415 | 68 | 304 | 0.0 | 0.0 | 0.00 | 0.06 | 0.00 | 96 | 1011.7 |
| 20260906054310 | 68 | 304 | 0.0 | 0.0 | 0.00 | 0.06 | 0.00 | 96 | 1011.6 |
| 20260906054203 | 68 | 304 | 0.0 | 0.0 | 0.00 | 0.06 | 0.00 | 96 | 1011.6 |
| 20260906054100 | 68 | 304 | 0.0 | 0.0 | 0.00 | 0.06 | 0.00 | 96 | 1011.6 |
| 20260906053958 | 68 | 304 | 0.0 | 0.0 | 0.00 | 0.06 | 0.00 | 96 | 1011.6 |
| 20260906053854 | 68 | 304 | 0.0 | 0.0 | 0.00 | 0.06 | 0.00 | 96 | 1011.6 |
| 20260906053750 | 68 | 304 | 0.0 | 0.0 | 0.00 | 0.06 | 0.00 | 96 | 1011.6 |
| 20260906053647 | 68 | 304 | 0.0 | 0.0 | 0.00 | 0.06 | 0.00 | 96 | 1011.6 |
| 20260906053544 | 68 | 304 | 0.0 | 0.0 | 0.00 | 0.06 | 0.00 | 96 | 1011.6 |
| 20260906053440 | 68 | 303 | 0.0 | 0.0 | 0.00 | 0.06 | 0.00 | 96 | 1011.6 |
| 20260906053337 | 68 | 304 | 0.0 | 0.0 | 0.00 | 0.06 | 0.00 | 96 | 1011.6 |
| 20260906053232 | 68 | 304 | 0.0 | 0.0 | 0.00 | 0.06 | 0.00 | 96 | 1011.6 |
| 20260906053128 | 68 | 304 | 0.0 | 0.0 | 0.00 | 0.06 | 0.00 | 96 | 1011.6 |
| 20260906052759 | 68 | 304 | 0.0 | 0.0 | 0.00 | 0.06 | 0.00 | 96 | 1011.6 |
| 20260906052654 | 68 | 304 | 0.0 | 0.0 | 0.00 | 0.06 | 0.00 | 96 | 1011.6 |
| 20260906052546 | 68 | 304 | 0.0 | 0.0 | 0.00 | 0.06 | 0.00 | 96 | 1011.6 |
| 20260906052444 | 68 | 304 | 0.0 | 0.0 | 0.00 | 0.06 | 0.00 | 96 | 1011.6 |
| 20260906052339 | 68 | 304 | 0.0 | 0.0 | 0.00 | 0.06 | 0.00 | 96 | 1011.6 |
| 20260906052233 | 68 | 304 | 0.0 | 0.0 | 0.00 | 0.06 | 0.00 | 96 | 1011.6 |
| 20260906052130 | 68 | 304 | 0.0 | 0.0 | 0.00 | 0.06 | 0.00 | 96 | 1011.6 |
| 20260906052024 | 68 | 304 | 0.0 | 0.0 | 0.00 | 0.06 | 0.00 | 96 | 1011.6 |
| 20260906051917 | 68 | 304 | 0.0 | 0.0 | 0.00 | 0.06 | 0.00 | 96 | 1011.6 |
| 20260906051814 | 68 | 304 | 0.0 | 0.0 | 0.00 | 0.06 | 0.00 | 96 | 1011.7 |
| 20260906051709 | 68 | 304 | 0.0 | 0.0 | 0.00 | 0.06 | 0.00 | 96 | 1011.6 |
| 20260906051604 | 68 | 304 | 0.0 | 0.0 | 0.00 | 0.06 | 0.00 | 96 | 1011.6 |
| 20260906051455 | 68 | 304 | 0.0 | 0.0 | 0.00 | 0.06 | 0.00 | 96 | 1011.7 |
| 20260906051130 | 68 | 304 | 0.0 | 0.0 | 0.00 | 0.06 | 0.00 | 96 | 1011.7 |
| 20260906051027 | 68 | 304 | 0.0 | 0.0 | 0.00 | 0.06 | 0.00 | 96 | 1011.7 |
| 20260906050704 | 68 | 304 | 0.0 | 0.0 | 0.00 | 0.06 | 0.00 | 96 | 1011.7 |
| 20260906050600 | 68 | 304 | 0.0 | 0.0 | 0.00 | 0.06 | 0.00 | 96 | 1011.8 |
| 20260906050457 | 68 | 304 | 0.0 | 0.0 | 0.00 | 0.06 | 0.00 | 96 | 1011.8 |
| 20260906050351 | 68 | 304 | 0.0 | 0.0 | 0.00 | 0.06 | 0.00 | 96 | 1011.8 |
| 20260906050022 | 69 | 304 | 0.0 | 0.0 | 0.00 | 0.06 | 0.00 | 96 | 1011.8 |
| 20260906045918 | 69 | 304 | 0.0 | 0.0 | 0.00 | 0.06 | 0.00 | 96 | 1011.8 |
| 20260906045815 | 69 | 304 | 0.0 | 0.0 | 0.00 | 0.06 | 0.00 | 96 | 1011.9 |
| 20260906045710 | 69 | 304 | 0.0 | 0.0 | 0.00 | 0.06 | 0.00 | 96 | 1011.9 |
| 20260906045605 | 69 | 304 | 0.0 | 0.0 | 0.00 | 0.06 | 0.00 | 96 | 1011.9 |
| 20260906045503 | 69 | 303 | 0.0 | 0.0 | 0.00 | 0.06 | 0.00 | 96 | 1011.8 |
| 20260906045400 | 69 | 304 | 0.0 | 0.0 | 0.00 | 0.06 | 0.00 | 96 | 1011.9 |
| 20260906045253 | 69 | 304 | 0.0 | 0.0 | 0.00 | 0.06 | 0.00 | 96 | 1011.9 |
| 20260906045149 | 69 | 304 | 0.0 | 0.0 | 0.00 | 0.06 | 0.00 | 96 | 1011.9 |
| 20260906045043 | 69 | 304 | 0.0 | 0.0 | 0.00 | 0.06 | 0.00 | 96 | 1011.9 |
| 20260906044936 | 69 | 304 | 0.0 | 0.0 | 0.00 | 0.06 | 0.00 | 96 | 1011.9 |
| 20260906044609 | 69 | 304 | 0.0 | 0.0 | 0.00 | 0.06 | 0.00 | 96 | 1011.8 |
| 20260906044501 | 69 | 304 | 0.0 | 0.0 | 0.00 | 0.06 | 0.00 | 96 | 1011.8 |
| 20260906044354 | 69 | 304 | 0.0 | 0.0 | 0.00 | 0.06 | 0.00 | 96 | 1011.8 |
| 20260906044251 | 69 | 304 | 0.0 | 0.0 | 0.00 | 0.06 | 0.00 | 96 | 1011.8 |
| 20260906044148 | 69 | 304 | 0.0 | 0.0 | 0.00 | 0.06 | 0.00 | 96 | 1011.8 |
| 20260906044042 | 69 | 304 | 0.0 | 0.0 | 0.00 | 0.06 | 0.00 | 96 | 1011.8 |
| 20260906043936 | 69 | 304 | 0.0 | 0.0 | 0.00 | 0.06 | 0.00 | 96 | 1011.9 |
| 20260906043830 | 69 | 304 | 0.0 | 0.0 | 0.00 | 0.06 | 0.00 | 96 | 1011.9 |
| 20260906043246 | 69 | 304 | 0.0 | 0.0 | 0.00 | 0.06 | 0.00 | 96 | 1011.9 |
| 20260906043142 | 69 | 304 | 0.0 | 0.0 | 0.00 | 0.06 | 0.00 | 96 | 1011.9 |
| 20260906043038 | 69 | 304 | 0.0 | 0.0 | 0.00 | 0.06 | 0.00 | 96 | 1011.9 |
| 20260906042931 | 69 | 304 | 0.0 | 0.0 | 0.00 | 0.06 | 0.00 | 96 | 1011.9 |
| 20260906042829 | 69 | 304 | 0.0 | 0.0 | 0.00 | 0.06 | 0.00 | 96 | 1011.9 |
| 20260906042722 | 69 | 304 | 0.0 | 0.0 | 0.00 | 0.06 | 0.00 | 96 | 1011.9 |
| 20260906042616 | 69 | 304 | 0.0 | 0.0 | 0.00 | 0.06 | 0.00 | 96 | 1011.9 |
| 20260906042514 | 69 | 304 | 0.0 | 0.0 | 0.00 | 0.06 | 0.00 | 96 | 1011.9 |
| 20260906042408 | 69 | 304 | 0.0 | 0.0 | 0.00 | 0.06 | 0.00 | 96 | 1011.9 |
| 20260906042044 | 69 | 304 | 0.0 | 0.0 | 0.00 | 0.06 | 0.00 | 96 | 1012.0 |
| 20260906041715 | 70 | 304 | 0.0 | 0.0 | 0.00 | 0.06 | 0.00 | 96 | 1012.0 |
| 20260906041612 | 70 | 304 | 0.0 | 0.0 | 0.00 | 0.06 | 0.00 | 96 | 1012.0 |
| 20260906041505 | 70 | 304 | 0.0 | 0.0 | 0.00 | 0.06 | 0.00 | 96 | 1012.0 |
| 20260906041401 | 70 | 304 | 0.0 | 0.0 | 0.00 | 0.06 | 0.00 | 96 | 1012.0 |
| 20260906041033 | 70 | 304 | 0.0 | 0.0 | 0.00 | 0.06 | 0.00 | 96 | 1012.2 |
| 20260906040926 | 70 | 304 | 0.0 | 0.0 | 0.00 | 0.06 | 0.00 | 96 | 1012.2 |
| 20260906040821 | 70 | 304 | 0.0 | 0.0 | 0.00 | 0.06 | 0.00 | 96 | 1012.2 |
| 20260906040455 | 70 | 304 | 0.0 | 0.0 | 0.00 | 0.06 | 0.00 | 96 | 1012.3 |
| 20260906040128 | 70 | 304 | 0.0 | 0.0 | 0.00 | 0.06 | 0.00 | 96 | 1012.1 |
| 20260906040024 | 70 | 304 | 0.0 | 0.0 | 0.00 | 0.06 | 0.00 | 96 | 1012.1 |
| 20260906035918 | 70 | 304 | 0.0 | 0.0 | 0.00 | 0.06 | 0.06 | 96 | 1012.0 |
| 20260906035812 | 70 | 304 | 0.0 | 0.0 | 0.00 | 0.06 | 0.06 | 96 | 1012.0 |
| 20260906035447 | 70 | 304 | 0.0 | 0.0 | 0.00 | 0.06 | 0.06 | 96 | 1012.1 |
| 20260906035342 | 70 | 304 | 0.0 | 0.0 | 0.00 | 0.06 | 0.06 | 96 | 1012.0 |
| 20260906034535 | 70 | 304 | 0.0 | 0.0 | 0.00 | 0.06 | 0.06 | 96 | 1012.2 |
| 20260906034430 | 70 | 304 | 0.0 | 0.0 | 0.00 | 0.06 | 0.06 | 96 | 1012.2 |
| 20260906034326 | 70 | 304 | 0.0 | 0.0 | 0.00 | 0.06 | 0.06 | 96 | 1012.1 |
| 20260906034225 | 70 | 304 | 0.0 | 0.0 | 0.00 | 0.06 | 0.06 | 96 | 1012.1 |
| 20260906034122 | 70 | 304 | 0.0 | 0.0 | 0.00 | 0.06 | 0.06 | 96 | 1012.1 |
| 20260906034016 | 70 | 304 | 0.0 | 0.0 | 0.00 | 0.06 | 0.06 | 96 | 1012.1 |
| 20260906033650 | 70 | 304 | 0.0 | 0.0 | 0.00 | 0.06 | 0.06 | 96 | 1012.1 |
| 20260906033544 | 70 | 304 | 0.0 | 0.0 | 0.00 | 0.06 | 0.06 | 96 | 1012.1 |
| 20260906033436 | 70 | 304 | 0.0 | 0.0 | 0.00 | 0.06 | 0.06 | 96 | 1012.1 |
| 20260906033333 | 70 | 304 | 0.0 | 0.0 | 0.00 | 0.06 | 0.06 | 96 | 1012.1 |
| 20260906033231 | 70 | 304 | 0.0 | 0.0 | 0.00 | 0.06 | 0.06 | 96 | 1012.0 |
| 20260906032906 | 70 | 304 | 0.0 | 0.0 | 0.00 | 0.06 | 0.06 | 96 | 1012.1 |
| 20260906032803 | 70 | 304 | 0.0 | 0.0 | 0.00 | 0.06 | 0.06 | 96 | 1012.1 |
| 20260906032658 | 70 | 304 | 0.0 | 0.0 | 0.00 | 0.06 | 0.06 | 96 | 1012.1 |
| 20260906032550 | 70 | 304 | 0.0 | 0.0 | 0.00 | 0.06 | 0.06 | 96 | 1012.1 |
| 20260906032443 | 70 | 304 | 0.0 | 0.0 | 0.00 | 0.06 | 0.06 | 96 | 1012.1 |
| 20260906032337 | 70 | 304 | 0.0 | 0.0 | 0.00 | 0.06 | 0.06 | 96 | 1012.1 |
| 20260906032230 | 70 | 304 | 0.0 | 0.0 | 0.00 | 0.06 | 0.06 | 96 | 1012.1 |
| 20260906032124 | 70 | 304 | 0.0 | 0.0 | 0.00 | 0.06 | 0.06 | 96 | 1012.1 |
| 20260906032020 | 70 | 304 | 0.0 | 0.0 | 0.00 | 0.06 | 0.06 | 96 | 1012.1 |
| 20260906031916 | 70 | 304 | 0.0 | 0.0 | 0.00 | 0.06 | 0.06 | 96 | 1012.1 |
| 20260906031552 | 70 | 304 | 0.0 | 0.0 | 0.00 | 0.06 | 0.06 | 96 | 1012.0 |
| 20260906031447 | 70 | 304 | 0.0 | 0.0 | 0.00 | 0.06 | 0.06 | 96 | 1012.0 |
| 20260906031343 | 70 | 304 | 0.0 | 0.0 | 0.00 | 0.06 | 0.06 | 96 | 1012.0 |
| 20260906031236 | 70 | 304 | 0.0 | 0.0 | 0.00 | 0.06 | 0.06 | 96 | 1012.0 |
| 20260906031130 | 70 | 304 | 0.0 | 0.0 | 0.00 | 0.06 | 0.06 | 96 | 1012.0 |
| 20260906031028 | 70 | 304 | 0.0 | 0.0 | 0.00 | 0.06 | 0.06 | 96 | 1012.0 |
| 20260906030920 | 70 | 304 | 0.0 | 0.0 | 0.00 | 0.06 | 0.06 | 96 | 1012.0 |
| 20260906030814 | 70 | 304 | 0.0 | 0.0 | 0.00 | 0.06 | 0.06 | 96 | 1012.0 |
| 20260906030705 | 70 | 304 | 0.0 | 0.0 | 0.00 | 0.06 | 0.06 | 96 | 1012.0 |
| 20260906030558 | 70 | 304 | 0.0 | 0.0 | 0.00 | 0.06 | 0.06 | 96 | 1012.0 |
| 20260906030232 | 70 | 304 | 0.0 | 0.0 | 0.00 | 0.06 | 0.06 | 96 | 1012.0 |
| 20260906030126 | 70 | 304 | 0.0 | 0.0 | 0.00 | 0.06 | 0.06 | 96 | 1012.0 |
| 20260906030020 | 70 | 304 | 0.0 | 0.0 | 0.00 | 0.06 | 0.06 | 96 | 1012.0 |
| 20260906025913 | 70 | 304 | 0.0 | 0.0 | 0.00 | 0.06 | 0.06 | 96 | 1012.0 |
| 20260906025808 | 70 | 304 | 0.0 | 0.0 | 0.00 | 0.06 | 0.06 | 96 | 1012.0 |
| 20260906025705 | 70 | 304 | 0.0 | 0.0 | 0.00 | 0.06 | 0.06 | 96 | 1011.9 |
| 20260906025558 | 70 | 304 | 0.0 | 0.0 | 0.00 | 0.06 | 0.06 | 96 | 1011.9 |
| 20260906025450 | 70 | 304 | 0.0 | 0.0 | 0.00 | 0.06 | 0.06 | 96 | 1011.9 |
| 20260906025342 | 70 | 304 | 0.0 | 0.0 | 0.00 | 0.06 | 0.06 | 96 | 1011.8 |
| 20260906025237 | 70 | 304 | 0.0 | 0.0 | 0.00 | 0.06 | 0.06 | 96 | 1011.8 |
| 20260906025129 | 70 | 304 | 0.0 | 0.0 | 0.00 | 0.06 | 0.06 | 96 | 1011.8 |
| 20260906025025 | 70 | 304 | 0.0 | 0.0 | 0.00 | 0.06 | 0.06 | 96 | 1011.8 |
| 20260906024922 | 70 | 304 | 0.0 | 0.0 | 0.00 | 0.06 | 0.06 | 96 | 1011.9 |
| 20260906024556 | 70 | 304 | 0.0 | 0.0 | 0.00 | 0.06 | 0.06 | 96 | 1012.0 |
| 20260906024228 | 70 | 304 | 0.0 | 0.0 | 0.00 | 0.06 | 0.06 | 96 | 1011.9 |
| 20260906024123 | 70 | 304 | 0.0 | 0.0 | 0.00 | 0.06 | 0.06 | 96 | 1011.9 |
| 20260906024017 | 70 | 304 | 0.0 | 0.0 | 0.00 | 0.06 | 0.06 | 96 | 1011.9 |
| 20260906023914 | 70 | 304 | 0.0 | 0.0 | 0.00 | 0.06 | 0.06 | 96 | 1011.9 |
| 20260906023812 | 70 | 304 | 0.0 | 0.0 | 0.00 | 0.06 | 0.06 | 96 | 1011.9 |
| 20260906023707 | 70 | 304 | 0.0 | 0.0 | 0.00 | 0.06 | 0.06 | 96 | 1011.9 |
| 20260906023602 | 70 | 304 | 0.0 | 0.0 | 0.00 | 0.06 | 0.06 | 96 | 1011.9 |
| 20260906023456 | 70 | 304 | 0.0 | 0.0 | 0.00 | 0.06 | 0.06 | 96 | 1011.9 |
| 20260906023351 | 70 | 304 | 0.0 | 0.0 | 0.00 | 0.06 | 0.06 | 96 | 1011.9 |
| 20260906023246 | 70 | 304 | 0.0 | 0.0 | 0.00 | 0.06 | 0.06 | 96 | 1011.8 |
| 20260906023139 | 70 | 304 | 0.0 | 0.0 | 0.00 | 0.06 | 0.06 | 96 | 1011.8 |
| 20260906023032 | 70 | 304 | 0.0 | 0.0 | 0.00 | 0.06 | 0.06 | 96 | 1011.7 |
| 20260906022928 | 70 | 304 | 0.0 | 0.0 | 0.00 | 0.06 | 0.06 | 96 | 1011.7 |
| 20260906022824 | 70 | 304 | 0.0 | 0.0 | 0.00 | 0.06 | 0.06 | 96 | 1011.7 |
| 20260906022502 | 71 | 304 | 0.0 | 0.0 | 0.00 | 0.06 | 0.06 | 96 | 1011.7 |
| 20260906022134 | 70 | 304 | 0.0 | 0.0 | 0.00 | 0.06 | 0.06 | 96 | 1011.7 |
| 20260906022032 | 70 | 304 | 0.0 | 0.0 | 0.00 | 0.06 | 0.06 | 96 | 1011.7 |
| 20260906021931 | 70 | 304 | 0.0 | 0.0 | 0.00 | 0.06 | 0.06 | 96 | 1011.8 |
| 20260906021604 | 70 | 304 | 0.0 | 0.0 | 0.00 | 0.06 | 0.06 | 96 | 1011.7 |
| 20260906021238 | 71 | 304 | 0.0 | 0.0 | 0.00 | 0.06 | 0.06 | 96 | 1011.7 |
| 20260906021134 | 70 | 304 | 0.0 | 0.0 | 0.00 | 0.06 | 0.06 | 96 | 1011.7 |
| 20260906021028 | 71 | 304 | 0.0 | 0.0 | 0.00 | 0.06 | 0.06 | 96 | 1011.7 |
| 20260906020921 | 71 | 304 | 0.0 | 0.0 | 0.00 | 0.06 | 0.06 | 96 | 1011.7 |
| 20260906020814 | 71 | 304 | 0.0 | 0.0 | 0.00 | 0.06 | 0.06 | 96 | 1011.6 |
| 20260906020710 | 71 | 304 | 0.0 | 0.0 | 0.00 | 0.06 | 0.06 | 96 | 1011.7 |
| 20260906020608 | 71 | 304 | 0.0 | 0.0 | 0.00 | 0.06 | 0.06 | 96 | 1011.7 |
| 20260906020247 | 71 | 304 | 0.0 | 0.0 | 0.00 | 0.06 | 0.06 | 96 | 1011.8 |
| 20260906020140 | 71 | 304 | 0.0 | 0.0 | 0.00 | 0.06 | 0.06 | 96 | 1011.8 |
| 20260906015813 | 71 | 304 | 0.0 | 0.0 | 0.00 | 0.06 | 0.06 | 96 | 1011.8 |
| 20260906015708 | 71 | 304 | 0.0 | 0.0 | 0.00 | 0.06 | 0.06 | 96 | 1011.8 |
| 20260906015606 | 71 | 304 | 0.0 | 0.0 | 0.00 | 0.06 | 0.06 | 96 | 1011.8 |
| 20260906015502 | 71 | 304 | 0.0 | 0.0 | 0.00 | 0.06 | 0.06 | 96 | 1011.8 |
| 20260906015134 | 71 | 281 | 0.0 | 0.0 | 0.00 | 0.06 | 0.06 | 96 | 1011.7 |
| 20260906015029 | 71 | 281 | 0.0 | 0.0 | 0.00 | 0.06 | 0.06 | 96 | 1011.7 |
| 20260906014923 | 71 | 281 | 0.0 | 0.0 | 0.00 | 0.06 | 0.06 | 96 | 1011.7 |
| 20260906014816 | 70 | 281 | 0.0 | 0.0 | 0.00 | 0.06 | 0.06 | 96 | 1011.7 |
| 20260906014713 | 71 | 281 | 0.0 | 0.0 | 0.00 | 0.06 | 0.06 | 96 | 1011.6 |
| 20260906014607 | 71 | 281 | 0.0 | 0.0 | 0.00 | 0.06 | 0.06 | 96 | 1011.6 |
| 20260906014500 | 71 | 281 | 0.0 | 0.0 | 0.00 | 0.06 | 0.06 | 96 | 1011.6 |
| 20260906014353 | 71 | 281 | 0.0 | 0.0 | 0.00 | 0.06 | 0.06 | 96 | 1011.6 |
| 20260906014247 | 71 | 281 | 0.0 | 0.0 | 0.00 | 0.06 | 0.06 | 96 | 1011.5 |
| 20260906013922 | 71 | 281 | 0.0 | 0.0 | 0.00 | 0.06 | 0.06 | 96 | 1011.4 |
| 20260906013557 | 70 | 281 | 0.0 | 0.0 | 0.00 | 0.06 | 0.06 | 96 | 1011.3 |
| 20260906013453 | 71 | 281 | 0.0 | 0.0 | 0.00 | 0.06 | 0.06 | 96 | 1011.3 |
| 20260906013349 | 71 | 281 | 0.0 | 0.0 | 0.00 | 0.06 | 0.06 | 96 | 1011.3 |
| 20260906013246 | 71 | 281 | 0.0 | 0.0 | 0.00 | 0.06 | 0.06 | 96 | 1011.3 |
| 20260906013142 | 71 | 281 | 0.0 | 0.0 | 0.00 | 0.06 | 0.06 | 96 | 1011.4 |
| 20260906012820 | 71 | 281 | 0.0 | 0.0 | 0.00 | 0.06 | 0.06 | 96 | 1011.4 |
| 20260906012716 | 71 | 281 | 0.0 | 0.0 | 0.00 | 0.06 | 0.06 | 96 | 1011.3 |
| 20260906012609 | 71 | 281 | 0.0 | 0.0 | 0.00 | 0.06 | 0.06 | 95 | 1011.4 |
| 20260906012504 | 71 | 281 | 0.0 | 0.0 | 0.00 | 0.06 | 0.06 | 95 | 1011.4 |
| 20260906012358 | 71 | 281 | 0.0 | 0.0 | 0.00 | 0.06 | 0.06 | 96 | 1011.4 |
| 20260906012252 | 71 | 281 | 0.0 | 0.0 | 0.00 | 0.06 | 0.06 | 96 | 1011.3 |
| 20260906012148 | 71 | 281 | 0.0 | 0.0 | 0.00 | 0.06 | 0.06 | 95 | 1011.3 |
| 20260906012043 | 71 | 281 | 0.0 | 0.0 | 0.00 | 0.06 | 0.06 | 95 | 1011.3 |
| 20260906011938 | 71 | 281 | 0.0 | 0.0 | 0.00 | 0.06 | 0.06 | 95 | 1011.2 |
| 20260906011835 | 71 | 281 | 0.0 | 0.0 | 0.00 | 0.06 | 0.06 | 95 | 1011.2 |
| 20260906011729 | 71 | 281 | 0.0 | 0.0 | 0.00 | 0.06 | 0.06 | 95 | 1011.2 |
| 20260906011624 | 71 | 281 | 0.0 | 0.0 | 0.00 | 0.06 | 0.06 | 95 | 1011.2 |
| 20260906011520 | 71 | 281 | 0.0 | 0.0 | 0.00 | 0.06 | 0.06 | 95 | 1011.2 |
| 20260906011415 | 71 | 281 | 0.0 | 0.0 | 0.00 | 0.06 | 0.06 | 95 | 1011.1 |
| 20260906011308 | 71 | 281 | 0.0 | 0.0 | 0.00 | 0.06 | 0.06 | 95 | 1011.1 |
| 20260906011201 | 71 | 281 | 0.0 | 0.0 | 0.00 | 0.06 | 0.06 | 95 | 1011.1 |
| 20260906011054 | 71 | 281 | 0.0 | 0.0 | 0.00 | 0.06 | 0.06 | 95 | 1011.1 |
| 20260906010948 | 71 | 281 | 0.0 | 0.0 | 0.00 | 0.06 | 0.06 | 95 | 1011.0 |
| 20260906010625 | 71 | 281 | 0.0 | 0.0 | 0.00 | 0.06 | 0.06 | 95 | 1011.0 |
| 20260906010517 | 71 | 281 | 0.0 | 0.0 | 0.00 | 0.06 | 0.06 | 95 | 1011.0 |
| 20260906010412 | 71 | 281 | 0.0 | 0.0 | 0.00 | 0.06 | 0.06 | 95 | 1011.0 |
| 20260906010309 | 71 | 281 | 0.0 | 0.0 | 0.00 | 0.06 | 0.06 | 95 | 1010.9 |
| 20260906010206 | 71 | 281 | 0.0 | 0.0 | 0.00 | 0.06 | 0.06 | 95 | 1011.0 |
| 20260906010057 | 71 | 281 | 0.0 | 0.0 | 0.00 | 0.06 | 0.06 | 95 | 1010.9 |
| 20260906005952 | 71 | 281 | 0.0 | 0.0 | 0.00 | 0.06 | 0.06 | 95 | 1010.9 |
| 20260906005846 | 71 | 281 | 0.0 | 0.0 | 0.00 | 0.06 | 0.06 | 95 | 1010.9 |
| 20260906005738 | 71 | 281 | 0.0 | 0.0 | 0.00 | 0.06 | 0.06 | 95 | 1010.8 |
| 20260906005631 | 71 | 281 | 0.0 | 0.0 | 0.00 | 0.06 | 0.06 | 95 | 1010.9 |
| 20260906005526 | 71 | 281 | 0.0 | 0.0 | 0.00 | 0.06 | 0.06 | 95 | 1010.9 |
| 20260906005424 | 71 | 281 | 0.0 | 0.0 | 0.00 | 0.06 | 0.06 | 95 | 1010.9 |
| 20260906005318 | 71 | 281 | 0.0 | 0.0 | 0.00 | 0.06 | 0.06 | 95 | 1010.8 |
| 20260906005214 | 71 | 281 | 0.0 | 0.0 | 0.00 | 0.06 | 0.06 | 95 | 1010.8 |
| 20260906005109 | 71 | 281 | 0.0 | 0.0 | 0.00 | 0.06 | 0.06 | 95 | 1010.7 |
| 20260906004741 | 71 | 281 | 0.0 | 0.0 | 0.00 | 0.06 | 0.06 | 95 | 1010.7 |
| 20260906004637 | 71 | 281 | 0.0 | 0.0 | 0.00 | 0.06 | 0.06 | 95 | 1010.7 |
| 20260906004531 | 71 | 281 | 0.0 | 0.0 | 0.00 | 0.06 | 0.06 | 95 | 1010.7 |
| 20260906004427 | 71 | 281 | 0.0 | 0.0 | 0.00 | 0.06 | 0.06 | 95 | 1010.7 |
| 20260906004324 | 71 | 281 | 0.0 | 0.0 | 0.00 | 0.06 | 0.06 | 95 | 1010.7 |
| 20260906004221 | 71 | 281 | 0.0 | 0.0 | 0.00 | 0.06 | 0.06 | 95 | 1010.7 |
| 20260906004116 | 71 | 281 | 0.0 | 0.0 | 0.00 | 0.06 | 0.06 | 94 | 1010.7 |
| 20260906003533 | 71 | 281 | 0.0 | 0.0 | 0.00 | 0.06 | 0.06 | 94 | 1010.6 |
| 20260906003427 | 71 | 281 | 0.0 | 0.0 | 0.00 | 0.06 | 0.06 | 94 | 1010.6 |
| 20260906003102 | 71 | 281 | 0.0 | 0.0 | 0.00 | 0.06 | 0.06 | 94 | 1010.6 |
| 20260906002738 | 71 | 281 | 0.0 | 0.0 | 0.00 | 0.06 | 0.06 | 94 | 1010.6 |
| 20260906002631 | 71 | 281 | 0.0 | 0.0 | 0.00 | 0.06 | 0.06 | 94 | 1010.6 |
| 20260906002528 | 72 | 281 | 0.0 | 0.0 | 0.00 | 0.06 | 0.06 | 94 | 1010.6 |
| 20260906002424 | 72 | 281 | 0.0 | 0.0 | 0.00 | 0.06 | 0.06 | 94 | 1010.6 |
| 20260906002318 | 72 | 281 | 0.0 | 0.0 | 0.00 | 0.06 | 0.06 | 94 | 1010.6 |
| 20260906002211 | 72 | 281 | 0.0 | 0.0 | 0.00 | 0.06 | 0.06 | 94 | 1010.6 |
| 20260906002110 | 72 | 281 | 0.0 | 0.0 | 0.00 | 0.06 | 0.06 | 94 | 1010.6 |
| 20260906001525 | 72 | 281 | 0.0 | 0.0 | 0.00 | 0.06 | 0.06 | 94 | 1010.5 |
| 20260906001423 | 72 | 281 | 0.0 | 0.0 | 0.00 | 0.06 | 0.06 | 94 | 1010.5 |
| 20260906001318 | 72 | 281 | 0.0 | 0.0 | 0.00 | 0.06 | 0.06 | 94 | 1010.5 |
| 20260906001211 | 72 | 281 | 0.0 | 0.0 | 0.00 | 0.06 | 0.06 | 94 | 1010.6 |
| 20260906001105 | 72 | 281 | 0.0 | 0.0 | 0.00 | 0.06 | 0.06 | 94 | 1010.6 |
| 20260906000957 | 72 | 281 | 0.0 | 0.0 | 0.00 | 0.06 | 0.06 | 94 | 1010.6 |
| 20260906000853 | 72 | 281 | 0.0 | 0.0 | 0.00 | 0.06 | 0.06 | 94 | 1010.6 |
| 20260906000751 | 72 | 281 | 0.0 | 1.0 | 0.00 | 0.06 | 0.06 | 94 | 1010.6 |
| 20260906000426 | 72 | 281 | 0.0 | 1.0 | 0.00 | 0.06 | 0.06 | 94 | 1010.6 |
| 20260906000319 | 72 | 281 | 0.0 | 0.0 | 0.00 | 0.06 | 0.06 | 94 | 1010.6 |
| 20260906000212 | 72 | 281 | 0.0 | 0.0 | 0.00 | 0.06 | 0.06 | 94 | 1010.6 |
| 20260906000105 | 72 | 281 | 0.0 | 0.0 | 0.00 | 0.06 | 0.06 | 94 | 1010.6 |
| 20260906000003 | 72 | 281 | 0.0 | 0.0 | 0.00 | 0.06 | 0.06 | 94 | 1010.6 |
| 20260905235640 | 72 | 281 | 0.0 | 0.0 | 0.00 | 0.06 | 0.06 | 94 | 1010.6 |
| 20260905235534 | 72 | 281 | 0.0 | 0.0 | 0.00 | 0.06 | 0.06 | 94 | 1010.6 |
| 20260905235426 | 72 | 281 | 0.0 | 0.0 | 0.00 | 0.06 | 0.06 | 94 | 1010.6 |
| 20260905235320 | 72 | 281 | 0.0 | 0.0 | 0.00 | 0.06 | 0.06 | 94 | 1010.6 |
| 20260905235214 | 72 | 281 | 0.0 | 0.0 | 0.00 | 0.06 | 0.06 | 94 | 1010.5 |
| 20260905234850 | 72 | 281 | 0.0 | 0.0 | 0.00 | 0.06 | 0.06 | 94 | 1010.5 |
| 20260905234744 | 72 | 281 | 0.0 | 0.0 | 0.00 | 0.06 | 0.06 | 94 | 1010.5 |
| 20260905234642 | 72 | 281 | 0.0 | 0.0 | 0.00 | 0.06 | 0.06 | 94 | 1010.5 |
| 20260905234319 | 72 | 281 | 0.0 | 0.0 | 0.00 | 0.06 | 0.06 | 94 | 1010.6 |
| 20260905234212 | 72 | 281 | 0.0 | 0.0 | 0.00 | 0.06 | 0.06 | 94 | 1010.6 |
| 20260905233625 | 72 | 281 | 0.0 | 0.0 | 0.00 | 0.06 | 0.06 | 94 | 1010.5 |
| 20260905233522 | 73 | 281 | 0.0 | 0.0 | 0.00 | 0.06 | 0.06 | 94 | 1010.5 |
| 20260905233418 | 73 | 281 | 0.0 | 0.0 | 0.00 | 0.06 | 0.06 | 94 | 1010.6 |
| 20260905233057 | 73 | 281 | 0.0 | 0.0 | 0.00 | 0.06 | 0.06 | 94 | 1010.6 |
| 20260905232952 | 73 | 281 | 0.0 | 0.0 | 0.00 | 0.06 | 0.06 | 93 | 1010.6 |
| 20260905232849 | 73 | 281 | 0.0 | 0.0 | 0.00 | 0.06 | 0.06 | 93 | 1010.6 |
| 20260905232745 | 73 | 281 | 0.0 | 0.0 | 0.00 | 0.06 | 0.06 | 93 | 1010.6 |
| 20260905232638 | 73 | 281 | 0.0 | 0.0 | 0.00 | 0.06 | 0.06 | 93 | 1010.5 |
| 20260905232533 | 73 | 281 | 0.0 | 0.0 | 0.00 | 0.06 | 0.06 | 93 | 1010.5 |
| 20260905232425 | 73 | 281 | 0.0 | 0.0 | 0.00 | 0.06 | 0.06 | 93 | 1010.6 |
| 20260905232323 | 73 | 281 | 0.0 | 0.0 | 0.00 | 0.06 | 0.06 | 93 | 1010.6 |
| 20260905232217 | 73 | 281 | 0.0 | 0.0 | 0.00 | 0.06 | 0.06 | 93 | 1010.5 |
| 20260905232114 | 73 | 281 | 0.0 | 0.0 | 0.00 | 0.06 | 0.06 | 93 | 1010.5 |
| 20260905232008 | 73 | 281 | 0.0 | 0.0 | 0.00 | 0.06 | 0.06 | 93 | 1010.5 |
| 20260905231900 | 73 | 281 | 0.0 | 0.0 | 0.00 | 0.06 | 0.06 | 93 | 1010.5 |
| 20260905231757 | 73 | 286 | 0.0 | 0.0 | 0.00 | 0.06 | 0.06 | 93 | 1010.5 |
| 20260905231650 | 73 | 286 | 0.0 | 0.0 | 0.00 | 0.06 | 0.06 | 93 | 1010.5 |
| 20260905231546 | 73 | 286 | 0.0 | 0.0 | 0.00 | 0.06 | 0.06 | 93 | 1010.5 |
| 20260905231443 | 73 | 286 | 0.0 | 0.0 | 0.00 | 0.06 | 0.06 | 93 | 1010.5 |
| 20260905231336 | 73 | 286 | 0.0 | 0.0 | 0.00 | 0.06 | 0.06 | 93 | 1010.5 |
| 20260905231230 | 73 | 286 | 0.0 | 0.0 | 0.00 | 0.06 | 0.06 | 93 | 1010.5 |
| 20260905231124 | 73 | 286 | 0.0 | 0.0 | 0.00 | 0.06 | 0.06 | 93 | 1010.5 |
| 20260905230800 | 73 | 286 | 0.0 | 0.0 | 0.00 | 0.06 | 0.06 | 93 | 1010.5 |
| 20260905230652 | 73 | 286 | 0.0 | 0.0 | 0.00 | 0.06 | 0.06 | 93 | 1010.5 |
| 20260905230549 | 73 | 286 | 0.0 | 0.0 | 0.00 | 0.06 | 0.06 | 93 | 1010.4 |
| 20260905230445 | 73 | 286 | 0.0 | 0.0 | 0.00 | 0.06 | 0.06 | 93 | 1010.4 |
| 20260905230340 | 73 | 286 | 0.0 | 0.0 | 0.00 | 0.06 | 0.06 | 93 | 1010.4 |
| 20260905230237 | 73 | 286 | 0.0 | 0.0 | 0.00 | 0.06 | 0.06 | 93 | 1010.4 |
| 20260905230134 | 73 | 286 | 0.0 | 0.0 | 0.00 | 0.06 | 0.06 | 93 | 1010.4 |
| 20260905230032 | 73 | 286 | 0.0 | 0.0 | 0.00 | 0.06 | 0.06 | 93 | 1010.4 |
| 20260905225924 | 73 | 286 | 0.0 | 0.0 | 0.00 | 0.06 | 0.06 | 93 | 1010.3 |
| 20260905225821 | 73 | 286 | 0.0 | 0.0 | 0.00 | 0.06 | 0.06 | 93 | 1010.3 |
| 20260905225716 | 73 | 286 | 0.0 | 0.0 | 0.00 | 0.06 | 0.06 | 93 | 1010.3 |
| 20260905225136 | 74 | 286 | 0.0 | 0.0 | 0.00 | 0.06 | 0.06 | 93 | 1010.2 |
| 20260905225032 | 74 | 286 | 0.0 | 0.0 | 0.00 | 0.06 | 0.06 | 93 | 1010.2 |
| 20260905224930 | 74 | 286 | 0.0 | 0.0 | 0.00 | 0.06 | 0.06 | 93 | 1010.2 |
| 20260905224823 | 74 | 286 | 0.0 | 0.0 | 0.00 | 0.06 | 0.06 | 93 | 1010.3 |
| 20260905224718 | 74 | 286 | 0.0 | 0.0 | 0.00 | 0.06 | 0.06 | 93 | 1010.2 |
| 20260905224350 | 74 | 286 | 0.0 | 0.0 | 0.00 | 0.06 | 0.06 | 93 | 1010.4 |
| 20260905224245 | 74 | 286 | 0.0 | 0.0 | 0.00 | 0.06 | 0.06 | 93 | 1010.3 |
| 20260905224142 | 74 | 286 | 0.0 | 0.0 | 0.00 | 0.06 | 0.06 | 93 | 1010.4 |
| 20260905224037 | 74 | 286 | 0.0 | 0.0 | 0.00 | 0.06 | 0.06 | 93 | 1010.4 |
| 20260905223932 | 74 | 286 | 0.0 | 0.0 | 0.00 | 0.06 | 0.06 | 93 | 1010.4 |
| 20260905223826 | 74 | 286 | 0.0 | 0.0 | 0.00 | 0.06 | 0.06 | 93 | 1010.3 |
| 20260905223721 | 74 | 286 | 0.0 | 0.0 | 0.00 | 0.06 | 0.06 | 93 | 1010.3 |
| 20260905223614 | 74 | 286 | 0.0 | 0.0 | 0.00 | 0.06 | 0.06 | 93 | 1010.3 |
| 20260905223510 | 74 | 286 | 0.0 | 0.0 | 0.00 | 0.06 | 0.06 | 93 | 1010.4 |
| 20260905223404 | 74 | 286 | 0.0 | 0.0 | 0.00 | 0.06 | 0.06 | 93 | 1010.3 |
| 20260905223257 | 74 | 286 | 0.0 | 0.0 | 0.00 | 0.06 | 0.06 | 93 | 1010.3 |
| 20260905223153 | 74 | 286 | 0.0 | 0.0 | 0.00 | 0.06 | 0.06 | 93 | 1010.4 |
| 20260905223048 | 74 | 286 | 0.0 | 0.0 | 0.00 | 0.06 | 0.06 | 93 | 1010.3 |
| 20260905222942 | 74 | 286 | 0.0 | 0.0 | 0.00 | 0.06 | 0.06 | 93 | 1010.3 |
| 20260905222838 | 74 | 286 | 0.0 | 0.0 | 0.00 | 0.06 | 0.06 | 93 | 1010.3 |
| 20260905222731 | 74 | 286 | 0.0 | 0.0 | 0.00 | 0.06 | 0.06 | 93 | 1010.3 |
| 20260905222408 | 74 | 286 | 0.0 | 0.0 | 0.00 | 0.06 | 0.06 | 93 | 1010.2 |
| 20260905222301 | 74 | 286 | 0.0 | 0.0 | 0.00 | 0.06 | 0.06 | 93 | 1010.2 |
| 20260905222157 | 74 | 286 | 0.0 | 0.0 | 0.00 | 0.06 | 0.06 | 93 | 1010.2 |
| 20260905221833 | 74 | 286 | 0.0 | 0.0 | 0.00 | 0.06 | 0.06 | 93 | 1010.2 |
| 20260905221727 | 74 | 286 | 0.0 | 0.0 | 0.00 | 0.06 | 0.06 | 93 | 1010.2 |
| 20260905221401 | 74 | 286 | 0.0 | 0.0 | 0.00 | 0.06 | 0.06 | 92 | 1010.1 |
| 20260905221258 | 74 | 286 | 0.0 | 0.0 | 0.00 | 0.06 | 0.06 | 92 | 1010.1 |
| 20260905221151 | 74 | 286 | 0.0 | 0.0 | 0.00 | 0.06 | 0.06 | 92 | 1010.1 |
| 20260905221049 | 74 | 286 | 0.0 | 0.0 | 0.00 | 0.06 | 0.06 | 92 | 1010.2 |
| 20260905220946 | 74 | 286 | 0.0 | 0.0 | 0.00 | 0.06 | 0.06 | 92 | 1010.2 |
| 20260905220841 | 74 | 286 | 0.0 | 0.0 | 0.00 | 0.06 | 0.06 | 92 | 1010.2 |
| 20260905220733 | 74 | 286 | 0.0 | 0.0 | 0.00 | 0.06 | 0.06 | 92 | 1010.2 |
| 20260905220627 | 74 | 286 | 0.0 | 0.0 | 0.00 | 0.06 | 0.06 | 92 | 1010.1 |
| 20260905220521 | 74 | 286 | 0.0 | 0.0 | 0.00 | 0.06 | 0.06 | 91 | 1010.1 |
| 20260905220157 | 74 | 259 | 0.0 | 0.0 | 0.00 | 0.06 | 0.06 | 91 | 1010.2 |
| 20260905220050 | 74 | 259 | 0.0 | 0.0 | 0.00 | 0.06 | 0.06 | 91 | 1010.2 |
| 20260905215721 | 75 | 259 | 0.0 | 1.0 | 0.00 | 0.06 | 0.06 | 90 | 1010.0 |
| 20260905215617 | 75 | 259 | 0.0 | 0.0 | 0.00 | 0.06 | 0.06 | 90 | 1010.0 |
| 20260905215514 | 75 | 259 | 0.0 | 0.0 | 0.00 | 0.06 | 0.06 | 90 | 1010.0 |
| 20260905215408 | 75 | 259 | 0.0 | 0.0 | 0.00 | 0.06 | 0.06 | 90 | 1010.0 |
| 20260905215306 | 75 | 259 | 0.0 | 0.0 | 0.00 | 0.06 | 0.06 | 90 | 1010.0 |
| 20260905215157 | 75 | 259 | 0.0 | 0.0 | 0.00 | 0.06 | 0.06 | 90 | 1010.1 |
| 20260905215052 | 75 | 259 | 0.0 | 0.0 | 0.00 | 0.06 | 0.06 | 90 | 1010.1 |
| 20260905214949 | 75 | 259 | 0.0 | 0.0 | 0.00 | 0.06 | 0.06 | 90 | 1010.1 |
| 20260905214844 | 75 | 259 | 0.0 | 0.0 | 0.00 | 0.06 | 0.06 | 89 | 1010.1 |
| 20260905214517 | 75 | 259 | 0.0 | 0.0 | 0.00 | 0.06 | 0.06 | 89 | 1010.0 |
| 20260905214415 | 75 | 259 | 0.0 | 0.0 | 0.00 | 0.06 | 0.06 | 89 | 1010.0 |
| 20260905214309 | 75 | 259 | 0.0 | 0.0 | 0.00 | 0.06 | 0.06 | 89 | 1010.0 |
| 20260905213729 | 76 | 259 | 0.0 | 0.0 | 0.00 | 0.06 | 0.06 | 88 | 1010.1 |
| 20260905213624 | 76 | 259 | 0.0 | 0.0 | 0.00 | 0.06 | 0.06 | 88 | 1010.1 |
| 20260905213519 | 76 | 259 | 0.0 | 1.0 | 0.00 | 0.06 | 0.06 | 88 | 1010.1 |
| 20260905213416 | 76 | 259 | 0.0 | 1.0 | 0.00 | 0.06 | 0.06 | 88 | 1010.1 |
| 20260905213314 | 76 | 259 | 0.0 | 1.0 | 0.00 | 0.06 | 0.06 | 88 | 1010.0 |
| 20260905213207 | 76 | 259 | 0.0 | 1.0 | 0.00 | 0.06 | 0.06 | 88 | 1010.0 |
| 20260905213105 | 76 | 259 | 0.0 | 1.0 | 0.00 | 0.06 | 0.06 | 87 | 1009.9 |
| 20260905213000 | 76 | 259 | 0.0 | 1.0 | 0.00 | 0.06 | 0.06 | 87 | 1009.8 |
| 20260905212854 | 76 | 259 | 0.0 | 1.0 | 0.00 | 0.06 | 0.06 | 87 | 1009.8 |
| 20260905212750 | 76 | 259 | 0.0 | 1.0 | 0.00 | 0.06 | 0.06 | 87 | 1009.8 |
| 20260905212644 | 76 | 259 | 0.0 | 1.0 | 0.00 | 0.06 | 0.06 | 87 | 1009.8 |
| 20260905212537 | 77 | 259 | 0.0 | 0.0 | 0.00 | 0.06 | 0.06 | 87 | 1009.8 |
| 20260905212435 | 77 | 259 | 0.0 | 0.0 | 0.00 | 0.06 | 0.06 | 86 | 1009.8 |
| 20260905212332 | 77 | 259 | 0.0 | 0.0 | 0.00 | 0.06 | 0.06 | 86 | 1009.8 |
| 20260905212009 | 77 | 259 | 0.0 | 0.0 | 0.04 | 0.06 | 0.06 | 85 | 1009.8 |
| 20260905211644 | 77 | 259 | 0.0 | 0.0 | 0.05 | 0.06 | 0.06 | 85 | 1009.7 |
| 20260905211538 | 77 | 259 | 0.0 | 0.0 | 0.05 | 0.06 | 0.06 | 85 | 1009.7 |
| 20260905211433 | 77 | 259 | 0.0 | 1.0 | 0.06 | 0.06 | 0.06 | 85 | 1009.7 |
| 20260905211330 | 77 | 259 | 0.0 | 1.0 | 0.06 | 0.06 | 0.06 | 85 | 1009.7 |
| 20260905211225 | 78 | 259 | 0.0 | 1.0 | 0.06 | 0.06 | 0.06 | 85 | 1009.7 |
| 20260905211121 | 78 | 259 | 0.0 | 1.0 | 0.08 | 0.06 | 0.06 | 85 | 1009.6 |
| 20260905210757 | 78 | 259 | 0.0 | 1.0 | 0.09 | 0.06 | 0.06 | 85 | 1009.6 |
| 20260905210653 | 78 | 259 | 0.0 | 1.0 | 0.09 | 0.06 | 0.06 | 85 | 1009.7 |
| 20260905210545 | 78 | 236 | 0.0 | 1.0 | 0.09 | 0.06 | 0.06 | 85 | 1009.6 |
| 20260905210440 | 78 | 236 | 0.0 | 1.0 | 0.09 | 0.05 | 0.06 | 85 | 1009.6 |
| 20260905210335 | 78 | 236 | 0.0 | 1.0 | 0.10 | 0.05 | 0.05 | 85 | 1009.6 |
| 20260905210013 | 79 | 355 | 0.0 | 1.0 | 0.25 | 0.05 | 0.05 | 84 | 1009.6 |
| 20260905205907 | 79 | 355 | 0.0 | 1.0 | 0.43 | 0.04 | 0.05 | 84 | 1009.5 |
| 20260905205542 | 79 | 355 | 0.0 | 1.0 | 1.63 | 0.00 | 0.02 | 82 | 1009.5 |
| 20260905205438 | 79 | 331 | 0.0 | 0.0 | 0.00 | 0.00 | 0.00 | 81 | 1009.4 |
| 20260905205333 | 79 | 331 | 0.0 | 0.0 | 0.00 | 0.00 | 0.00 | 81 | 1009.4 |
| 20260905205225 | 79 | 331 | 0.0 | 0.0 | 0.00 | 0.00 | 0.00 | 81 | 1009.4 |
| 20260905204901 | 79 | 278 | 0.0 | 1.0 | 0.00 | 0.00 | 0.00 | 81 | 1009.4 |
| 20260905204757 | 79 | 278 | 0.0 | 1.0 | 0.00 | 0.00 | 0.00 | 81 | 1009.4 |
| 20260905204650 | 79 | 346 | 0.0 | 1.0 | 0.00 | 0.00 | 0.00 | 81 | 1009.5 |
| 20260905204322 | 79 | 346 | 0.0 | 3.0 | 0.00 | 0.00 | 0.00 | 81 | 1009.5 |
| 20260905204219 | 79 | 334 | 0.0 | 3.0 | 0.00 | 0.00 | 0.00 | 81 | 1009.5 |
| 20260905204113 | 79 | 334 | 0.0 | 3.0 | 0.00 | 0.00 | 0.00 | 81 | 1009.5 |
| 20260905204010 | 79 | 334 | 0.0 | 3.0 | 0.00 | 0.00 | 0.00 | 81 | 1009.5 |
| 20260905203905 | 79 | 334 | 0.0 | 3.0 | 0.00 | 0.00 | 0.00 | 81 | 1009.5 |
| 20260905203759 | 79 | 334 | 0.0 | 3.0 | 0.00 | 0.00 | 0.00 | 81 | 1009.5 |
| 20260905203653 | 79 | 334 | 0.0 | 3.0 | 0.00 | 0.00 | 0.00 | 81 | 1009.5 |
| 20260905203551 | 79 | 334 | 0.0 | 3.0 | 0.00 | 0.00 | 0.00 | 81 | 1009.6 |
| 20260905203225 | 79 | 355 | 0.0 | 3.0 | 0.00 | 0.00 | 0.00 | 80 | 1009.5 |
| 20260905203122 | 79 | 355 | 0.0 | 3.0 | 0.00 | 0.00 | 0.00 | 79 | 1009.5 |
| 20260905203015 | 79 | 355 | 0.0 | 3.0 | 0.00 | 0.00 | 0.00 | 79 | 1009.5 |
| 20260905202911 | 79 | 342 | 0.0 | 3.0 | 0.00 | 0.00 | 0.00 | 78 | 1009.5 |
| 20260905202803 | 79 | 219 | 0.0 | 3.0 | 0.00 | 0.00 | 0.00 | 78 | 1009.5 |
| 20260905202434 | 79 | 298 | 0.0 | 3.0 | 0.00 | 0.03 | 0.00 | 81 | 1009.4 |
| 20260905202330 | 79 | 276 | 0.0 | 2.0 | 0.00 | 0.05 | 0.00 | 80 | 1009.3 |
| 20260905202223 | 79 | 23 | 0.0 | 1.0 | 0.00 | 0.07 | 0.00 | 79 | 1009.4 |
| 20260905201900 | 79 | 44 | 0.0 | 1.0 | 0.00 | 0.13 | 0.00 | 81 | 1009.5 |
| 20260905201757 | 79 | 123 | 0.0 | 1.0 | 0.00 | 0.16 | 0.00 | 81 | 1009.5 |
| 20260905201653 | 79 | 112 | 0.0 | 1.0 | 0.00 | 0.20 | 0.00 | 80 | 1009.5 |
| 20260905201546 | 79 | 112 | 0.0 | 3.0 | 0.00 | 0.26 | 0.00 | 81 | 1009.5 |
| 20260905201223 | 79 | 152 | 0.0 | 3.0 | 0.00 | 0.42 | 0.00 | 78 | 1009.4 |
| 20260905200859 | 79 | 137 | 0.0 | 3.0 | 0.00 | 0.57 | 0.00 | 81 | 1009.6 |
| 20260905200754 | 79 | 137 | 0.0 | 3.0 | 0.00 | 0.57 | 0.00 | 82 | 1009.6 |
| 20260905200429 | 79 | 150 | 0.0 | 3.0 | 0.00 | 0.57 | 0.00 | 78 | 1009.6 |
| 20260905200321 | 79 | 169 | 0.0 | 3.0 | 0.00 | 0.57 | 0.00 | 78 | 1009.6 |
| 20260905200216 | 79 | 69 | 0.0 | 3.0 | 0.00 | 0.57 | 0.00 | 78 | 1009.6 |
| 20260905200109 | 79 | 18 | 0.0 | 3.0 | 0.00 | 0.57 | 0.00 | 81 | 1009.6 |
| 20260905200005 | 79 | 38 | 0.0 | 3.0 | 0.00 | 0.57 | 0.00 | 81 | 1009.6 |
| 20260905195902 | 79 | 70 | 0.0 | 3.0 | 0.00 | 0.57 | 0.00 | 79 | 1009.6 |
| 20260905195759 | 79 | 70 | 0.0 | 3.0 | 0.00 | 0.57 | 0.00 | 79 | 1009.6 |
| 20260905195653 | 79 | 56 | 0.0 | 3.0 | 0.00 | 0.57 | 0.00 | 82 | 1009.6 |
| 20260905195547 | 79 | 38 | 0.0 | 1.0 | 0.00 | 0.57 | 0.00 | 81 | 1009.6 |
| 20260905195443 | 79 | 38 | 0.0 | 1.0 | 0.00 | 0.57 | 0.00 | 81 | 1009.6 |
| 20260905195340 | 79 | 38 | 0.0 | 1.0 | 0.00 | 0.57 | 0.00 | 81 | 1009.6 |
| 20260905195234 | 79 | 38 | 0.0 | 1.0 | 0.00 | 0.57 | 0.00 | 81 | 1009.7 |
| 20260905195128 | 79 | 38 | 0.0 | 1.0 | 0.00 | 0.57 | 0.00 | 80 | 1009.7 |
| 20260905194809 | 79 | 32 | 0.0 | 1.0 | 0.00 | 0.57 | 0.00 | 80 | 1009.7 |
| 20260905194706 | 79 | 32 | 0.0 | 1.0 | 0.00 | 0.57 | 0.00 | 80 | 1009.8 |
| 20260905194604 | 79 | 17 | 0.0 | 1.0 | 0.00 | 0.57 | 0.00 | 80 | 1009.8 |
| 20260905194459 | 79 | 17 | 0.0 | 1.0 | 0.00 | 0.57 | 0.00 | 81 | 1009.8 |
| 20260905194356 | 79 | 277 | 0.0 | 1.0 | 0.00 | 0.57 | 0.00 | 80 | 1009.8 |
| 20260905194253 | 79 | 277 | 0.0 | 1.0 | 0.00 | 0.57 | 0.00 | 80 | 1009.8 |
| 20260905194150 | 79 | 277 | 0.0 | 1.0 | 0.00 | 0.57 | 0.00 | 80 | 1009.8 |
| 20260905194048 | 79 | 269 | 0.0 | 1.0 | 0.00 | 0.57 | 0.00 | 82 | 1009.8 |
| 20260905193723 | 78 | 135 | 0.0 | 1.0 | 0.00 | 0.57 | 0.00 | 81 | 1009.8 |
| 20260905193619 | 78 | 299 | 0.0 | 1.0 | 0.00 | 0.57 | 0.00 | 81 | 1009.8 |
| 20260905193514 | 78 | 299 | 0.0 | 1.0 | 0.00 | 0.57 | 0.00 | 81 | 1009.8 |
| 20260905193407 | 78 | 299 | 0.0 | 1.0 | 0.00 | 0.57 | 0.00 | 81 | 1009.8 |
| 20260905193303 | 78 | 299 | 0.0 | 1.0 | 0.00 | 0.57 | 0.00 | 82 | 1009.8 |
| 20260905193158 | 78 | 299 | 0.0 | 1.0 | 0.00 | 0.57 | 0.00 | 81 | 1009.8 |
| 20260905193053 | 78 | 299 | 0.0 | 2.0 | 0.00 | 0.57 | 0.00 | 81 | 1009.9 |
| 20260905192950 | 78 | 299 | 0.0 | 2.0 | 0.00 | 0.57 | 0.00 | 80 | 1009.9 |
| 20260905192626 | 78 | 242 | 0.0 | 2.0 | 0.00 | 0.57 | 0.00 | 81 | 1009.9 |
| 20260905192522 | 78 | 290 | 0.0 | 2.0 | 0.00 | 0.57 | 0.00 | 80 | 1009.9 |
| 20260905192418 | 78 | 225 | 0.0 | 2.0 | 0.00 | 0.57 | 0.00 | 80 | 1009.9 |
| 20260905192056 | 78 | 119 | 0.0 | 2.0 | 0.00 | 0.57 | 0.00 | 82 | 1010.0 |
| 20260905191952 | 78 | 119 | 0.0 | 2.0 | 0.00 | 0.57 | 0.00 | 83 | 1010.1 |
| 20260905191846 | 78 | 43 | 0.0 | 2.0 | 0.00 | 0.57 | 0.00 | 83 | 1010.1 |
| 20260905191742 | 78 | 24 | 0.0 | 2.0 | 0.00 | 0.57 | 0.00 | 85 | 1010.1 |
| 20260905191423 | 78 | 30 | 0.0 | 2.0 | 0.00 | 0.57 | 0.00 | 84 | 1010.1 |
| 20260905191316 | 78 | 30 | 0.0 | 2.0 | 0.00 | 0.57 | 0.00 | 83 | 1010.1 |
| 20260905190949 | 77 | 273 | 0.0 | 1.0 | 0.00 | 0.57 | 0.00 | 84 | 1010.1 |
| 20260905190844 | 77 | 279 | 0.0 | 1.0 | 0.00 | 0.57 | 0.00 | 84 | 1010.1 |
| 20260905190740 | 77 | 267 | 0.0 | 1.0 | 0.00 | 0.57 | 0.00 | 85 | 1010.1 |
| 20260905190637 | 78 | 267 | 0.0 | 1.0 | 0.00 | 0.57 | 0.00 | 85 | 1010.1 |
| 20260905190532 | 78 | 84 | 0.0 | 1.0 | 0.00 | 0.57 | 0.00 | 86 | 1010.1 |
| 20260905190426 | 78 | 84 | 0.0 | 1.0 | 0.00 | 0.57 | 0.00 | 86 | 1010.1 |
| 20260905190319 | 78 | 84 | 0.0 | 1.0 | 0.00 | 0.57 | 0.00 | 87 | 1010.1 |
| 20260905190213 | 78 | 84 | 0.0 | 0.0 | 0.00 | 0.57 | 0.00 | 87 | 1010.1 |
| 20260905190106 | 78 | 84 | 0.0 | 0.0 | 0.00 | 0.57 | 0.00 | 87 | 1010.1 |
| 20260905190003 | 78 | 84 | 0.0 | 0.0 | 0.00 | 0.57 | 0.00 | 87 | 1010.0 |
| 20260905185855 | 78 | 84 | 0.0 | 0.0 | 0.00 | 0.57 | 0.00 | 88 | 1010.1 |
| 20260905185751 | 78 | 84 | 0.0 | 0.0 | 0.00 | 0.57 | 0.00 | 87 | 1010.1 |
| 20260905185427 | 77 | 84 | 0.0 | 0.0 | 0.00 | 0.57 | 0.00 | 85 | 1010.1 |
| 20260905185320 | 77 | 84 | 0.0 | 0.0 | 0.00 | 0.57 | 0.00 | 85 | 1010.2 |
| 20260905185213 | 77 | 84 | 0.0 | 0.0 | 0.00 | 0.57 | 0.00 | 85 | 1010.2 |
| 20260905185109 | 78 | 84 | 0.0 | 0.0 | 0.00 | 0.57 | 0.00 | 85 | 1010.2 |
| 20260905185003 | 77 | 84 | 0.0 | 0.0 | 0.00 | 0.57 | 0.00 | 85 | 1010.2 |
| 20260905184858 | 77 | 84 | 0.0 | 0.0 | 0.00 | 0.57 | 0.00 | 84 | 1010.2 |
| 20260905184750 | 78 | 84 | 0.0 | 0.0 | 0.00 | 0.57 | 0.00 | 85 | 1010.3 |
| 20260905184645 | 78 | 84 | 0.0 | 0.0 | 0.00 | 0.57 | 0.00 | 85 | 1010.3 |
| 20260905184538 | 78 | 84 | 0.0 | 0.0 | 0.00 | 0.57 | 0.00 | 85 | 1010.3 |
| 20260905184214 | 78 | 84 | 0.0 | 2.0 | 0.00 | 0.57 | 0.00 | 85 | 1010.4 |
| 20260905184112 | 78 | 84 | 0.0 | 2.0 | 0.00 | 0.57 | 0.00 | 85 | 1010.4 |
| 20260905184004 | 78 | 84 | 0.0 | 2.0 | 0.00 | 0.57 | 0.00 | 86 | 1010.3 |
| 20260905183900 | 78 | 84 | 0.0 | 2.0 | 0.00 | 0.57 | 0.00 | 86 | 1010.3 |
| 20260905183758 | 78 | 84 | 0.0 | 2.0 | 0.00 | 0.57 | 0.00 | 85 | 1010.4 |
| 20260905183652 | 78 | 202 | 0.0 | 1.0 | 0.00 | 0.57 | 0.00 | 85 | 1010.4 |
| 20260905183549 | 78 | 208 | 0.0 | 1.0 | 0.00 | 0.57 | 0.00 | 84 | 1010.4 |
| 20260905183443 | 78 | 273 | 0.0 | 1.0 | 0.00 | 0.57 | 0.00 | 84 | 1010.4 |
| 20260905183338 | 78 | 273 | 0.0 | 1.0 | 0.00 | 0.57 | 0.00 | 84 | 1010.3 |
| 20260905183236 | 78 | 273 | 0.0 | 1.0 | 0.00 | 0.57 | 0.00 | 84 | 1010.3 |
| 20260905183131 | 78 | 197 | 0.0 | 0.0 | 0.00 | 0.57 | 0.00 | 84 | 1010.3 |
| 20260905183028 | 78 | 342 | 0.0 | 0.0 | 0.00 | 0.57 | 0.00 | 84 | 1010.4 |
| 20260905182924 | 78 | 342 | 0.0 | 0.0 | 0.00 | 0.57 | 0.00 | 84 | 1010.3 |
| 20260905182558 | 78 | 342 | 0.0 | 1.0 | 0.00 | 0.57 | 0.00 | 84 | 1010.3 |
| 20260905182230 | 78 | 355 | 0.0 | 1.0 | 0.00 | 0.57 | 0.00 | 87 | 1010.3 |
| 20260905182127 | 78 | 344 | 0.0 | 1.0 | 0.00 | 0.57 | 0.00 | 87 | 1010.2 |
| 20260905181759 | 78 | 344 | 0.0 | 2.0 | 0.00 | 0.57 | 0.00 | 86 | 1010.3 |
| 20260905181654 | 78 | 344 | 0.0 | 2.0 | 0.00 | 0.57 | 0.00 | 86 | 1010.3 |
| 20260905181551 | 78 | 307 | 0.0 | 2.0 | 0.00 | 0.57 | 0.00 | 85 | 1010.4 |
| 20260905181447 | 78 | 296 | 0.0 | 2.0 | 0.00 | 0.57 | 0.00 | 87 | 1010.3 |
| 20260905181340 | 78 | 296 | 0.0 | 2.0 | 0.00 | 0.57 | 0.00 | 87 | 1010.3 |
| 20260905181237 | 78 | 290 | 0.0 | 2.0 | 0.00 | 0.57 | 0.00 | 87 | 1010.3 |
| 20260905181134 | 78 | 209 | 0.0 | 2.0 | 0.00 | 0.57 | 0.00 | 87 | 1010.3 |
| 20260905180809 | 78 | 5 | 0.0 | 2.0 | 0.00 | 0.57 | 0.00 | 86 | 1010.3 |
| 20260905180703 | 78 | 5 | 0.0 | 2.0 | 0.00 | 0.57 | 0.00 | 86 | 1010.3 |
| 20260905180558 | 78 | 5 | 0.0 | 2.0 | 0.00 | 0.57 | 0.00 | 86 | 1010.4 |
| 20260905180454 | 78 | 5 | 0.0 | 2.0 | 0.00 | 0.57 | 0.00 | 86 | 1010.4 |
| 20260905180349 | 78 | 5 | 0.0 | 2.0 | 0.00 | 0.57 | 0.00 | 85 | 1010.4 |
| 20260905180246 | 78 | 351 | 0.0 | 2.0 | 0.00 | 0.57 | 0.00 | 86 | 1010.4 |
| 20260905180142 | 78 | 5 | 0.0 | 2.0 | 0.00 | 0.57 | 0.00 | 86 | 1010.4 |
| 20260905180039 | 78 | 290 | 0.0 | 2.0 | 0.00 | 0.57 | 0.00 | 86 | 1010.4 |
| 20260905175937 | 78 | 290 | 0.0 | 2.0 | 0.00 | 0.57 | 0.00 | 87 | 1010.5 |
| 20260905175830 | 77 | 32 | 0.0 | 2.0 | 0.00 | 0.57 | 0.00 | 86 | 1010.5 |
| 20260905175726 | 78 | 32 | 0.0 | 2.0 | 0.00 | 0.57 | 0.00 | 85 | 1010.4 |
| 20260905175357 | 77 | 320 | 0.0 | 2.0 | 0.00 | 0.57 | 0.00 | 85 | 1010.3 |
| 20260905175251 | 77 | 320 | 0.0 | 2.0 | 0.00 | 0.57 | 0.00 | 84 | 1010.4 |
| 20260905174922 | 78 | 15 | 0.0 | 2.0 | 0.00 | 0.57 | 0.00 | 84 | 1010.3 |
| 20260905174818 | 78 | 40 | 0.0 | 2.0 | 0.00 | 0.57 | 0.00 | 83 | 1010.3 |
| 20260905174713 | 78 | 63 | 0.0 | 2.0 | 0.00 | 0.57 | 0.00 | 85 | 1010.4 |
| 20260905174607 | 78 | 55 | 0.0 | 2.0 | 0.00 | 0.57 | 0.00 | 85 | 1010.4 |
| 20260905174503 | 78 | 155 | 0.0 | 2.0 | 0.00 | 0.57 | 0.00 | 85 | 1010.5 |
| 20260905174358 | 78 | 116 | 0.0 | 2.0 | 0.00 | 0.57 | 0.00 | 85 | 1010.5 |
| 20260905174252 | 78 | 108 | 0.0 | 2.0 | 0.00 | 0.57 | 0.00 | 86 | 1010.4 |
| 20260905174145 | 78 | 331 | 0.0 | 2.0 | 0.00 | 0.57 | 0.00 | 84 | 1010.4 |
| 20260905174043 | 78 | 259 | 0.0 | 2.0 | 0.00 | 0.57 | 0.00 | 86 | 1010.5 |
| 20260905173937 | 78 | 39 | 0.0 | 2.0 | 0.00 | 0.57 | 0.00 | 86 | 1010.5 |
| 20260905173830 | 78 | 39 | 0.0 | 2.0 | 0.00 | 0.57 | 0.00 | 85 | 1010.5 |
| 20260905173501 | 77 | 59 | 0.0 | 2.0 | 0.00 | 0.57 | 0.00 | 88 | 1010.5 |
| 20260905173357 | 77 | 48 | 0.0 | 2.0 | 0.00 | 0.57 | 0.00 | 88 | 1010.5 |
| 20260905173255 | 77 | 48 | 0.0 | 2.0 | 0.00 | 0.57 | 0.00 | 88 | 1010.6 |
| 20260905173148 | 76 | 48 | 0.0 | 2.0 | 0.00 | 0.57 | 0.00 | 89 | 1010.6 |
| 20260905173045 | 76 | 48 | 0.0 | 2.0 | 0.00 | 0.57 | 0.00 | 89 | 1010.6 |
| 20260905172942 | 76 | 296 | 0.0 | 2.0 | 0.00 | 0.57 | 0.00 | 88 | 1010.6 |
| 20260905172836 | 76 | 28 | 0.0 | 2.0 | 0.00 | 0.57 | 0.00 | 88 | 1010.6 |
| 20260905172730 | 76 | 28 | 0.0 | 2.0 | 0.00 | 0.57 | 0.00 | 90 | 1010.6 |
| 20260905172623 | 76 | 28 | 0.0 | 2.0 | 0.00 | 0.57 | 0.00 | 90 | 1010.6 |
| 20260905172520 | 76 | 28 | 0.0 | 2.0 | 0.00 | 0.57 | 0.00 | 90 | 1010.7 |
| 20260905172413 | 76 | 28 | 0.0 | 2.0 | 0.00 | 0.57 | 0.00 | 88 | 1010.7 |
| 20260905172050 | 76 | 25 | 0.0 | 2.0 | 0.00 | 0.57 | 0.00 | 91 | 1010.7 |